Wetterdaten: Montag, 30.03.2026
Datum Zeit Temp. Aussen Temp. o. S. Temp +5cm Feuchte Auss Luftdruck Regen Sonnenschein Solar Windböen Empfang
30.03.2026 00:00 7,1 °C 6,1 °C 2,2 °C 82 % 1019,9 hPa 0,0 l/m² 0 min 0 W/m² 45,1 km/h (6 Bft) 91,43 %
30.03.2026 00:02 7,0 °C 6,1 °C 1,7 °C 83 % 1019,9 hPa 0,0 l/m² 0 min 0 W/m² 22,5 km/h (4 Bft) 95,65 %
30.03.2026 00:04 6,9 °C 5,6 °C 1,7 °C 84 % 1019,9 hPa 0,0 l/m² 0 min 0 W/m² 25,7 km/h (4 Bft) 93,62 %
30.03.2026 00:07 6,8 °C 5,6 °C 1,7 °C 85 % 1019,7 hPa 0,0 l/m² 0 min 0 W/m² 32,2 km/h (5 Bft) 94,37 %
30.03.2026 00:08 6,7 °C 5,6 °C 1,1 °C 85 % 1019,7 hPa 0,0 l/m² 0 min 0 W/m² 19,3 km/h (3 Bft) 91,67 %
30.03.2026 00:10 6,7 °C 5,6 °C 1,1 °C 85 % 1020,1 hPa 0,2 l/m² 0 min 0 W/m² 25,7 km/h (4 Bft) 91,67 %
30.03.2026 00:12 6,6 °C 5,0 °C 1,1 °C 86 % 1019,6 hPa 0,0 l/m² 0 min 0 W/m² 22,5 km/h (4 Bft) 97,87 %
30.03.2026 00:14 6,5 °C 5,0 °C 1,1 °C 87 % 1019,7 hPa 0,0 l/m² 0 min 0 W/m² 35,4 km/h (5 Bft) 97,22 %
30.03.2026 00:16 6,4 °C 5,0 °C 1,1 °C 87 % 1019,5 hPa 0,2 l/m² 0 min 0 W/m² 19,3 km/h (3 Bft) 97,83 %
30.03.2026 00:18 6,3 °C 5,0 °C 1,1 °C 88 % 1019,3 hPa 0,2 l/m² 0 min 0 W/m² 19,3 km/h (3 Bft) 96,61 %
30.03.2026 00:20 6,2 °C 4,4 °C 1,1 °C 88 % 1019,3 hPa 0,0 l/m² 0 min 0 W/m² 25,7 km/h (4 Bft) 97,87 %
30.03.2026 00:22 6,2 °C 4,4 °C 1,1 °C 88 % 1019,2 hPa 0,0 l/m² 0 min 0 W/m² 32,2 km/h (5 Bft) 95,74 %
30.03.2026 00:24 6,1 °C 4,4 °C 1,1 °C 89 % 1019,3 hPa 0,2 l/m² 0 min 0 W/m² 29,0 km/h (5 Bft) 94,29 %
30.03.2026 00:26 6,0 °C 4,4 °C 1,1 °C 89 % 1019,3 hPa 0,2 l/m² 0 min 0 W/m² 38,6 km/h (5 Bft) 94,83 %
30.03.2026 00:28 5,9 °C 4,4 °C 1,1 °C 89 % 1019,2 hPa 0,0 l/m² 0 min 0 W/m² 29,0 km/h (5 Bft) 91,43 %
30.03.2026 00:30 5,9 °C 4,4 °C 1,1 °C 90 % 1019,1 hPa 0,0 l/m² 0 min 0 W/m² 25,7 km/h (4 Bft) 94,23 %
30.03.2026 00:32 5,9 °C 4,4 °C 1,1 °C 90 % 1019,0 hPa 0,0 l/m² 0 min 0 W/m² 41,8 km/h (6 Bft) 96,00 %
30.03.2026 00:34 5,8 °C 4,4 °C 1,1 °C 90 % 1019,2 hPa 0,2 l/m² 0 min 0 W/m² 25,7 km/h (4 Bft) 95,74 %
30.03.2026 00:36 5,8 °C 4,4 °C 1,1 °C 91 % 1019,0 hPa 0,0 l/m² 0 min 0 W/m² 22,5 km/h (4 Bft) 95,74 %
30.03.2026 00:38 5,8 °C 4,4 °C 1,1 °C 91 % 1019,0 hPa 0,2 l/m² 0 min 0 W/m² 22,5 km/h (4 Bft) 95,74 %
30.03.2026 00:40 5,8 °C 4,4 °C 1,1 °C 91 % 1019,2 hPa 0,0 l/m² 0 min 0 W/m² 29,0 km/h (5 Bft) 97,87 %
30.03.2026 00:42 5,7 °C 4,4 °C 1,1 °C 92 % 1019,0 hPa 0,0 l/m² 0 min 0 W/m² 35,4 km/h (5 Bft) 97,87 %
30.03.2026 00:44 5,7 °C 4,4 °C 1,1 °C 92 % 1019,1 hPa 0,0 l/m² 0 min 0 W/m² 48,3 km/h (6 Bft) 100,00 %
30.03.2026 00:46 5,7 °C 4,4 °C 1,1 °C 92 % 1019,1 hPa 0,0 l/m² 0 min 0 W/m² 38,6 km/h (5 Bft) 97,87 %
30.03.2026 00:48 5,7 °C 4,4 °C 1,1 °C 92 % 1018,9 hPa 0,0 l/m² 0 min 0 W/m² 22,5 km/h (4 Bft) 97,87 %
30.03.2026 00:50 5,7 °C 4,4 °C 1,1 °C 92 % 1018,9 hPa 0,0 l/m² 0 min 0 W/m² 32,2 km/h (5 Bft) 97,87 %
30.03.2026 00:52 5,7 °C 4,4 °C 1,1 °C 93 % 1018,9 hPa 0,0 l/m² 0 min 0 W/m² 51,5 km/h (7 Bft) 100,00 %
30.03.2026 00:54 5,7 °C 4,4 °C 1,1 °C 93 % 1018,7 hPa 0,0 l/m² 0 min 0 W/m² 32,2 km/h (5 Bft) 100,00 %
30.03.2026 00:56 5,7 °C 4,4 °C 1,1 °C 93 % 1018,5 hPa 0,2 l/m² 0 min 0 W/m² 32,2 km/h (5 Bft) 100,00 %
30.03.2026 00:58 5,7 °C 4,4 °C 1,1 °C 93 % 1018,5 hPa 0,0 l/m² 0 min 0 W/m² 38,6 km/h (5 Bft) 97,96 %
30.03.2026 01:00 5,7 °C 4,4 °C 1,1 °C 93 % 1018,5 hPa 0,0 l/m² 0 min 0 W/m² 57,9 km/h (7 Bft) 100,00 %
30.03.2026 01:02 5,7 °C 4,4 °C 1,1 °C 93 % 1018,4 hPa 0,2 l/m² 0 min 0 W/m² 41,8 km/h (6 Bft) 100,00 %
30.03.2026 01:04 5,7 °C 4,4 °C 1,1 °C 93 % 1018,4 hPa 0,0 l/m² 0 min 0 W/m² 41,8 km/h (6 Bft) 100,00 %
30.03.2026 01:06 5,7 °C 4,4 °C 1,1 °C 93 % 1018,3 hPa 0,0 l/m² 0 min 0 W/m² 29,0 km/h (5 Bft) 100,00 %
30.03.2026 01:08 5,7 °C 4,4 °C 1,1 °C 93 % 1018,2 hPa 0,0 l/m² 0 min 0 W/m² 32,2 km/h (5 Bft) 100,00 %
30.03.2026 01:10 5,7 °C 4,4 °C 1,1 °C 94 % 1018,0 hPa 0,0 l/m² 0 min 0 W/m² 29,0 km/h (5 Bft) 100,00 %
30.03.2026 01:12 5,7 °C 4,4 °C 1,1 °C 94 % 1018,2 hPa 0,0 l/m² 0 min 0 W/m² 38,6 km/h (5 Bft) 100,00 %
30.03.2026 01:14 5,7 °C 4,4 °C 1,1 °C 94 % 1018,2 hPa 0,0 l/m² 0 min 0 W/m² 32,2 km/h (5 Bft) 97,87 %
30.03.2026 01:16 5,7 °C 4,4 °C 1,1 °C 94 % 1018,0 hPa 0,0 l/m² 0 min 0 W/m² 41,8 km/h (6 Bft) 100,00 %
30.03.2026 01:18 5,7 °C 4,4 °C 1,1 °C 94 % 1018,0 hPa 0,0 l/m² 0 min 0 W/m² 25,7 km/h (4 Bft) 97,87 %
30.03.2026 01:20 5,7 °C 4,4 °C 1,1 °C 94 % 1017,8 hPa 0,0 l/m² 0 min 0 W/m² 22,5 km/h (4 Bft) 98,08 %
30.03.2026 01:22 5,7 °C 4,4 °C 1,1 °C 94 % 1018,0 hPa 0,0 l/m² 0 min 0 W/m² 25,7 km/h (4 Bft) 95,74 %
30.03.2026 01:24 5,7 °C 4,4 °C 1,1 °C 94 % 1017,9 hPa 0,0 l/m² 0 min 0 W/m² 35,4 km/h (5 Bft) 97,37 %
30.03.2026 01:26 5,7 °C 4,4 °C 1,1 °C 94 % 1017,9 hPa 0,0 l/m² 0 min 0 W/m² 35,4 km/h (5 Bft) 97,87 %
30.03.2026 01:28 5,7 °C 4,4 °C 1,1 °C 95 % 1017,8 hPa 0,0 l/m² 0 min 0 W/m² 29,0 km/h (5 Bft) 94,00 %
30.03.2026 01:30 5,7 °C 4,4 °C 1,1 °C 95 % 1017,8 hPa 0,0 l/m² 0 min 0 W/m² 41,8 km/h (6 Bft) 97,87 %
30.03.2026 01:32 5,8 °C 5,0 °C 1,1 °C 95 % 1017,8 hPa 0,0 l/m² 0 min 0 W/m² 38,6 km/h (5 Bft) 98,00 %
30.03.2026 01:34 5,8 °C 5,0 °C 1,1 °C 95 % 1017,8 hPa 0,0 l/m² 0 min 0 W/m² 12,9 km/h (3 Bft) 97,96 %
30.03.2026 01:36 5,8 °C 5,0 °C 1,1 °C 95 % 1017,7 hPa 0,0 l/m² 0 min 0 W/m² 22,5 km/h (4 Bft) 97,44 %
30.03.2026 01:38 5,8 °C 5,0 °C 1,1 °C 95 % 1017,8 hPa 0,0 l/m² 0 min 0 W/m² 29,0 km/h (5 Bft) 95,65 %
30.03.2026 01:40 5,8 °C 5,0 °C 1,1 °C 95 % 1017,7 hPa 0,0 l/m² 0 min 0 W/m² 32,2 km/h (5 Bft) 95,74 %
30.03.2026 01:42 5,8 °C 5,0 °C 1,1 °C 95 % 1017,6 hPa 0,0 l/m² 0 min 0 W/m² 25,7 km/h (4 Bft) 97,87 %
30.03.2026 01:44 5,8 °C 5,0 °C 1,1 °C 95 % 1017,5 hPa 0,0 l/m² 0 min 0 W/m² 22,5 km/h (4 Bft) 96,00 %
30.03.2026 01:46 5,8 °C 5,0 °C 1,1 °C 95 % 1017,4 hPa 0,0 l/m² 0 min 0 W/m² 41,8 km/h (6 Bft) 95,74 %
30.03.2026 01:48 5,9 °C 5,0 °C 1,1 °C 95 % 1017,2 hPa 0,0 l/m² 0 min 0 W/m² 32,2 km/h (5 Bft) 97,87 %
30.03.2026 01:50 5,9 °C 5,0 °C 1,1 °C 95 % 1017,2 hPa 0,0 l/m² 0 min 0 W/m² 29,0 km/h (5 Bft) 97,87 %
30.03.2026 01:52 5,9 °C 5,0 °C 1,1 °C 95 % 1017,3 hPa 0,0 l/m² 0 min 0 W/m² 35,4 km/h (5 Bft) 100,00 %
30.03.2026 01:54 5,9 °C 5,0 °C 1,1 °C 95 % 1016,9 hPa 0,0 l/m² 0 min 0 W/m² 45,1 km/h (6 Bft) 100,00 %
30.03.2026 01:56 5,9 °C 5,0 °C 1,1 °C 95 % 1016,8 hPa 0,0 l/m² 0 min 0 W/m² 32,2 km/h (5 Bft) 100,00 %
30.03.2026 01:58 5,9 °C 5,0 °C 1,1 °C 95 % 1016,8 hPa 0,0 l/m² 0 min 0 W/m² 45,1 km/h (6 Bft) 100,00 %
30.03.2026 02:00 6,0 °C 5,0 °C 1,1 °C 95 % 1016,7 hPa 0,0 l/m² 0 min 0 W/m² 22,5 km/h (4 Bft) 100,00 %
30.03.2026 02:02 6,0 °C 5,0 °C 1,7 °C 95 % 1016,7 hPa 0,0 l/m² 0 min 0 W/m² 16,1 km/h (3 Bft) 100,00 %
30.03.2026 02:04 6,0 °C 5,0 °C 1,7 °C 95 % 1016,6 hPa 0,2 l/m² 0 min 0 W/m² 35,4 km/h (5 Bft) 100,00 %
30.03.2026 02:06 6,1 °C 5,0 °C 1,7 °C 95 % 1016,6 hPa 0,0 l/m² 0 min 0 W/m² 32,2 km/h (5 Bft) 97,96 %
30.03.2026 02:08 6,1 °C 5,0 °C 1,7 °C 95 % 1016,3 hPa 0,0 l/m² 0 min 0 W/m² 19,3 km/h (3 Bft) 100,00 %
30.03.2026 02:10 6,1 °C 5,0 °C 1,7 °C 95 % 1016,4 hPa 0,0 l/m² 0 min 0 W/m² 32,2 km/h (5 Bft) 100,00 %
30.03.2026 02:12 6,1 °C 5,0 °C 1,1 °C 95 % 1016,2 hPa 0,0 l/m² 0 min 0 W/m² 45,1 km/h (6 Bft) 100,00 %
30.03.2026 02:14 6,1 °C 5,0 °C 1,1 °C 95 % 1016,2 hPa 0,0 l/m² 0 min 0 W/m² 35,4 km/h (5 Bft) 98,00 %
30.03.2026 02:16 6,1 °C 5,0 °C 1,1 °C 95 % 1016,3 hPa 0,0 l/m² 0 min 0 W/m² 29,0 km/h (5 Bft) 100,00 %
30.03.2026 02:18 6,1 °C 5,0 °C 1,7 °C 95 % 1016,3 hPa 0,0 l/m² 0 min 0 W/m² 41,8 km/h (6 Bft) 100,00 %
30.03.2026 02:20 6,1 °C 5,0 °C 1,7 °C 95 % 1015,9 hPa 0,0 l/m² 0 min 0 W/m² 22,5 km/h (4 Bft) 100,00 %
30.03.2026 02:22 6,1 °C 5,0 °C 1,7 °C 95 % 1016,1 hPa 0,0 l/m² 0 min 0 W/m² 29,0 km/h (5 Bft) 97,83 %
30.03.2026 02:24 6,1 °C 5,0 °C 1,7 °C 95 % 1016,0 hPa 0,0 l/m² 0 min 0 W/m² 32,2 km/h (5 Bft) 97,87 %
30.03.2026 02:26 6,1 °C 5,0 °C 1,7 °C 95 % 1015,8 hPa 0,0 l/m² 0 min 0 W/m² 25,7 km/h (4 Bft) 97,87 %
30.03.2026 02:28 6,1 °C 5,0 °C 1,7 °C 95 % 1015,9 hPa 0,0 l/m² 0 min 0 W/m² 25,7 km/h (4 Bft) 98,00 %
30.03.2026 02:30 6,1 °C 5,0 °C 1,7 °C 95 % 1016,0 hPa 0,0 l/m² 0 min 0 W/m² 29,0 km/h (5 Bft) 95,74 %
30.03.2026 02:32 6,2 °C 5,0 °C 1,7 °C 95 % 1015,8 hPa 0,0 l/m² 0 min 0 W/m² 19,3 km/h (3 Bft) 97,87 %
30.03.2026 02:34 6,2 °C 5,0 °C 1,7 °C 95 % 1015,7 hPa 0,0 l/m² 0 min 0 W/m² 38,6 km/h (5 Bft) 97,87 %
30.03.2026 02:36 6,2 °C 5,0 °C 1,7 °C 95 % 1015,7 hPa 0,0 l/m² 0 min 0 W/m² 19,3 km/h (3 Bft) 97,87 %
30.03.2026 02:38 6,2 °C 5,0 °C 1,7 °C 95 % 1015,5 hPa 0,0 l/m² 0 min 0 W/m² 22,5 km/h (4 Bft) 97,83 %
30.03.2026 02:40 6,2 °C 5,0 °C 1,7 °C 95 % 1015,4 hPa 0,0 l/m² 0 min 0 W/m² 25,7 km/h (4 Bft) 98,00 %
30.03.2026 02:42 6,2 °C 5,6 °C 1,7 °C 95 % 1015,5 hPa 0,0 l/m² 0 min 0 W/m² 41,8 km/h (6 Bft) 93,62 %
30.03.2026 02:44 6,2 °C 5,6 °C 1,7 °C 95 % 1015,3 hPa 0,0 l/m² 0 min 0 W/m² 29,0 km/h (5 Bft) 97,87 %
30.03.2026 02:46 6,2 °C 5,6 °C 1,7 °C 95 % 1015,2 hPa 0,0 l/m² 0 min 0 W/m² 19,3 km/h (3 Bft) 97,87 %
30.03.2026 02:48 6,3 °C 5,6 °C 1,7 °C 95 % 1015,3 hPa 0,0 l/m² 0 min 0 W/m² 25,7 km/h (4 Bft) 97,87 %
30.03.2026 02:50 6,3 °C 5,6 °C 1,7 °C 95 % 1015,3 hPa 0,0 l/m² 0 min 0 W/m² 29,0 km/h (5 Bft) 95,65 %
30.03.2026 02:52 6,3 °C 5,6 °C 1,7 °C 95 % 1015,1 hPa 0,0 l/m² 0 min 0 W/m² 22,5 km/h (4 Bft) 95,74 %
30.03.2026 02:54 6,3 °C 5,6 °C 1,7 °C 95 % 1015,1 hPa 0,0 l/m² 0 min 0 W/m² 19,3 km/h (3 Bft) 94,74 %
30.03.2026 02:56 6,3 °C 5,6 °C 1,7 °C 95 % 1015,1 hPa 0,0 l/m² 0 min 0 W/m² 22,5 km/h (4 Bft) 96,00 %
30.03.2026 02:58 6,3 °C 5,6 °C 1,7 °C 96 % 1015,0 hPa 0,0 l/m² 0 min 0 W/m² 16,1 km/h (3 Bft) 95,12 %
30.03.2026 03:00 6,4 °C 5,6 °C 1,7 °C 96 % 1014,9 hPa 0,0 l/m² 0 min 0 W/m² 16,1 km/h (3 Bft) 96,00 %
30.03.2026 03:02 6,4 °C 5,6 °C 1,7 °C 96 % 1014,9 hPa 0,0 l/m² 0 min 0 W/m² 22,5 km/h (4 Bft) 95,74 %
30.03.2026 03:04 6,4 °C 5,6 °C 1,7 °C 96 % 1014,9 hPa 0,0 l/m² 0 min 0 W/m² 25,7 km/h (4 Bft) 95,74 %
30.03.2026 03:06 6,4 °C 5,6 °C 1,7 °C 96 % 1014,8 hPa 0,0 l/m² 0 min 0 W/m² 16,1 km/h (3 Bft) 95,12 %
30.03.2026 03:08 6,4 °C 5,6 °C 1,7 °C 96 % 1014,9 hPa 0,0 l/m² 0 min 0 W/m² 22,5 km/h (4 Bft) 96,08 %
30.03.2026 03:10 6,5 °C 5,6 °C 1,7 °C 96 % 1014,7 hPa 0,0 l/m² 0 min 0 W/m² 29,0 km/h (5 Bft) 97,96 %
30.03.2026 03:12 6,5 °C 5,6 °C 1,7 °C 96 % 1014,6 hPa 0,0 l/m² 0 min 0 W/m² 22,5 km/h (4 Bft) 95,74 %
30.03.2026 03:14 6,5 °C 6,1 °C 1,7 °C 96 % 1014,5 hPa 0,0 l/m² 0 min 0 W/m² 16,1 km/h (3 Bft) 94,00 %
30.03.2026 03:16 6,5 °C 6,1 °C 1,7 °C 96 % 1014,3 hPa 0,0 l/m² 0 min 0 W/m² 29,0 km/h (5 Bft) 95,74 %
30.03.2026 03:18 6,6 °C 6,1 °C 1,7 °C 96 % 1014,4 hPa 0,0 l/m² 0 min 0 W/m² 19,3 km/h (3 Bft) 95,74 %
30.03.2026 03:20 6,6 °C 6,1 °C 1,7 °C 96 % 1014,3 hPa 0,0 l/m² 0 min 0 W/m² 22,5 km/h (4 Bft) 94,00 %
30.03.2026 03:22 6,6 °C 6,1 °C 1,7 °C 96 % 1014,4 hPa 0,0 l/m² 0 min 0 W/m² 22,5 km/h (4 Bft) 93,62 %
30.03.2026 03:24 6,6 °C 6,1 °C 1,7 °C 96 % 1014,2 hPa 0,0 l/m² 0 min 0 W/m² 25,7 km/h (4 Bft) 93,62 %
30.03.2026 03:26 6,6 °C 6,1 °C 1,7 °C 96 % 1014,2 hPa 0,0 l/m² 0 min 0 W/m² 22,5 km/h (4 Bft) 93,48 %
30.03.2026 03:28 6,7 °C 6,1 °C 1,7 °C 96 % 1014,1 hPa 0,0 l/m² 0 min 0 W/m² 19,3 km/h (3 Bft) 95,74 %
30.03.2026 03:30 6,7 °C 6,1 °C 2,2 °C 96 % 1014,1 hPa 0,0 l/m² 0 min 0 W/m² 25,7 km/h (4 Bft) 95,74 %
30.03.2026 03:32 6,7 °C 6,1 °C 2,2 °C 96 % 1014,1 hPa 0,0 l/m² 0 min 0 W/m² 22,5 km/h (4 Bft) 94,74 %
30.03.2026 03:34 6,7 °C 6,1 °C 2,2 °C 96 % 1014,0 hPa 0,0 l/m² 0 min 0 W/m² 22,5 km/h (4 Bft) 50,00 %
30.03.2026 03:36 6,7 °C 6,1 °C 2,2 °C 96 % 1014,1 hPa 0,0 l/m² 0 min 0 W/m² 22,5 km/h (4 Bft) 94,00 %
30.03.2026 03:38 6,8 °C 6,1 °C 2,2 °C 96 % 1014,0 hPa 0,0 l/m² 0 min 0 W/m² 22,5 km/h (4 Bft) 94,00 %
30.03.2026 03:40 6,8 °C 6,1 °C 2,2 °C 96 % 1014,0 hPa 0,0 l/m² 0 min 0 W/m² 25,7 km/h (4 Bft) 95,74 %
30.03.2026 03:42 6,8 °C 6,1 °C 2,2 °C 96 % 1014,0 hPa 0,0 l/m² 0 min 0 W/m² 22,5 km/h (4 Bft) 100,00 %
30.03.2026 03:44 6,8 °C 6,1 °C 2,2 °C 96 % 1014,0 hPa 0,0 l/m² 0 min 0 W/m² 19,3 km/h (3 Bft) 98,00 %
30.03.2026 03:46 6,8 °C 6,1 °C 2,2 °C 96 % 1013,9 hPa 0,0 l/m² 0 min 0 W/m² 16,1 km/h (3 Bft) 97,37 %
30.03.2026 03:48 6,9 °C 6,1 °C 2,2 °C 96 % 1014,1 hPa 0,0 l/m² 0 min 0 W/m² 29,0 km/h (5 Bft) 98,00 %
30.03.2026 03:50 6,9 °C 6,1 °C 2,2 °C 96 % 1014,1 hPa 0,2 l/m² 0 min 0 W/m² 35,4 km/h (5 Bft) 100,00 %
30.03.2026 03:52 6,9 °C 6,1 °C 2,2 °C 96 % 1014,0 hPa 0,0 l/m² 0 min 0 W/m² 32,2 km/h (5 Bft) 100,00 %
30.03.2026 03:54 6,9 °C 6,1 °C 2,2 °C 96 % 1013,6 hPa 0,2 l/m² 0 min 0 W/m² 12,9 km/h (3 Bft) 100,00 %
30.03.2026 03:56 7,0 °C 6,1 °C 2,2 °C 96 % 1013,7 hPa 0,2 l/m² 0 min 0 W/m² 22,5 km/h (4 Bft) 100,00 %
30.03.2026 03:58 7,0 °C 6,1 °C 2,2 °C 96 % 1013,7 hPa 0,2 l/m² 0 min 0 W/m² 32,2 km/h (5 Bft) 96,15 %
30.03.2026 04:00 7,1 °C 6,1 °C 2,2 °C 96 % 1013,9 hPa 0,2 l/m² 0 min 0 W/m² 29,0 km/h (5 Bft) 100,00 %
30.03.2026 04:02 7,1 °C 6,1 °C 2,2 °C 96 % 1013,9 hPa 0,2 l/m² 0 min 0 W/m² 32,2 km/h (5 Bft) 98,08 %
30.03.2026 04:04 7,1 °C 5,6 °C 2,2 °C 96 % 1014,3 hPa 0,2 l/m² 0 min 0 W/m² 45,1 km/h (6 Bft) 100,00 %
30.03.2026 04:06 6,6 °C 5,0 °C 1,1 °C 95 % 1014,9 hPa 0,2 l/m² 0 min 0 W/m² 57,9 km/h (7 Bft) 100,00 %
30.03.2026 04:08 6,2 °C 4,4 °C 1,1 °C 95 % 1014,7 hPa 0,2 l/m² 0 min 0 W/m² 38,6 km/h (5 Bft) 100,00 %
30.03.2026 04:10 5,9 °C 4,4 °C 0,6 °C 94 % 1014,7 hPa 0,2 l/m² 0 min 0 W/m² 32,2 km/h (5 Bft) 97,87 %
30.03.2026 04:12 5,7 °C 4,4 °C 0,6 °C 94 % 1014,7 hPa 0,0 l/m² 0 min 0 W/m² 38,6 km/h (5 Bft) 100,00 %
30.03.2026 04:14 5,6 °C 4,4 °C 0,6 °C 94 % 1014,9 hPa 0,2 l/m² 0 min 0 W/m² 38,6 km/h (5 Bft) 98,00 %
30.03.2026 04:16 5,5 °C 3,9 °C 0,6 °C 94 % 1014,8 hPa 0,0 l/m² 0 min 0 W/m² 57,9 km/h (7 Bft) 100,00 %
30.03.2026 04:18 5,4 °C 3,9 °C 0,6 °C 94 % 1014,9 hPa 0,0 l/m² 0 min 0 W/m² 54,7 km/h (7 Bft) 100,00 %
30.03.2026 04:20 5,3 °C 3,9 °C 0,6 °C 94 % 1014,9 hPa 0,2 l/m² 0 min 0 W/m² 38,6 km/h (5 Bft) 100,00 %
30.03.2026 04:22 5,3 °C 3,9 °C 0,6 °C 94 % 1014,9 hPa 0,0 l/m² 0 min 0 W/m² 32,2 km/h (5 Bft) 97,87 %
30.03.2026 04:24 5,3 °C 3,9 °C 0,6 °C 94 % 1015,1 hPa 0,0 l/m² 0 min 0 W/m² 25,7 km/h (4 Bft) 97,87 %
30.03.2026 04:26 5,2 °C 3,9 °C 0,6 °C 94 % 1015,1 hPa 0,2 l/m² 0 min 0 W/m² 32,2 km/h (5 Bft) 100,00 %
30.03.2026 04:28 5,2 °C 3,9 °C 0,6 °C 94 % 1015,3 hPa 0,0 l/m² 0 min 0 W/m² 51,5 km/h (7 Bft) 95,74 %
30.03.2026 04:30 5,2 °C 3,9 °C 0,6 °C 94 % 1015,3 hPa 0,0 l/m² 0 min 0 W/m² 54,7 km/h (7 Bft) 97,87 %
30.03.2026 04:32 5,1 °C 3,9 °C 0,6 °C 94 % 1015,3 hPa 0,0 l/m² 0 min 0 W/m² 38,6 km/h (5 Bft) 95,74 %
30.03.2026 04:34 5,1 °C 3,9 °C 0,6 °C 94 % 1015,3 hPa 0,2 l/m² 0 min 0 W/m² 25,7 km/h (4 Bft) 100,00 %
30.03.2026 04:36 5,0 °C 3,9 °C 0,6 °C 94 % 1015,2 hPa 0,0 l/m² 0 min 0 W/m² 25,7 km/h (4 Bft) 100,00 %
30.03.2026 04:38 5,0 °C 3,9 °C 0,0 °C 94 % 1015,2 hPa 0,0 l/m² 0 min 0 W/m² 25,7 km/h (4 Bft) 100,00 %
30.03.2026 04:40 4,9 °C 3,9 °C 0,0 °C 94 % 1015,0 hPa 0,0 l/m² 0 min 0 W/m² 29,0 km/h (5 Bft) 98,00 %
30.03.2026 04:42 4,9 °C 3,9 °C 0,0 °C 94 % 1015,0 hPa 0,0 l/m² 0 min 0 W/m² 29,0 km/h (5 Bft) 97,87 %
30.03.2026 04:44 4,8 °C 3,9 °C 0,0 °C 94 % 1015,1 hPa 0,0 l/m² 0 min 0 W/m² 9,7 km/h (2 Bft) 97,87 %
30.03.2026 04:46 4,8 °C 3,9 °C 0,0 °C 94 % 1015,0 hPa 0,0 l/m² 0 min 0 W/m² 19,3 km/h (3 Bft) 98,00 %
30.03.2026 04:48 4,8 °C 3,9 °C 0,0 °C 94 % 1014,9 hPa 0,0 l/m² 0 min 0 W/m² 16,1 km/h (3 Bft) 97,87 %
30.03.2026 04:50 4,8 °C 3,9 °C 0,0 °C 94 % 1014,9 hPa 0,0 l/m² 0 min 0 W/m² 16,1 km/h (3 Bft) 100,00 %
30.03.2026 04:52 4,7 °C 3,9 °C 0,0 °C 95 % 1014,8 hPa 0,0 l/m² 0 min 0 W/m² 19,3 km/h (3 Bft) 98,31 %
30.03.2026 04:54 4,7 °C 3,9 °C 0,0 °C 95 % 1014,7 hPa 0,0 l/m² 0 min 0 W/m² 9,7 km/h (2 Bft) 100,00 %
30.03.2026 04:56 4,7 °C 3,9 °C 0,0 °C 95 % 1014,7 hPa 0,0 l/m² 0 min 0 W/m² 12,9 km/h (3 Bft) 98,08 %
30.03.2026 04:58 4,7 °C 3,9 °C 0,0 °C 95 % 1014,8 hPa 0,0 l/m² 0 min 0 W/m² 9,7 km/h (2 Bft) 95,74 %
30.03.2026 05:00 4,7 °C 3,9 °C 0,0 °C 95 % 1014,8 hPa 0,0 l/m² 0 min 0 W/m² 12,9 km/h (3 Bft) 93,62 %
30.03.2026 05:02 4,7 °C 3,3 °C 0,0 °C 95 % 1014,8 hPa 0,0 l/m² 0 min 0 W/m² 9,7 km/h (2 Bft) 96,00 %
30.03.2026 05:04 4,6 °C 3,3 °C 0,0 °C 94 % 1014,8 hPa 0,0 l/m² 0 min 0 W/m² 19,3 km/h (3 Bft) 95,74 %
30.03.2026 05:06 4,6 °C 3,3 °C 0,0 °C 94 % 1014,8 hPa 0,0 l/m² 0 min 0 W/m² 16,1 km/h (3 Bft) 96,00 %
30.03.2026 05:08 4,6 °C 3,3 °C 0,0 °C 94 % 1014,8 hPa 0,0 l/m² 0 min 0 W/m² 12,9 km/h (3 Bft) 93,62 %
30.03.2026 05:10 4,6 °C 3,3 °C 0,0 °C 94 % 1014,8 hPa 0,0 l/m² 0 min 0 W/m² 12,9 km/h (3 Bft) 95,65 %
30.03.2026 05:12 4,6 °C 3,3 °C 0,0 °C 94 % 1014,8 hPa 0,0 l/m² 0 min 0 W/m² 9,7 km/h (2 Bft) 95,74 %
30.03.2026 05:14 4,6 °C 3,3 °C 0,0 °C 95 % 1014,7 hPa 0,0 l/m² 0 min 0 W/m² 12,9 km/h (3 Bft) 94,74 %
30.03.2026 05:16 4,6 °C 3,9 °C 0,0 °C 95 % 1014,6 hPa 0,0 l/m² 0 min 0 W/m² 12,9 km/h (3 Bft) 93,62 %
30.03.2026 05:18 4,6 °C 3,9 °C 0,0 °C 95 % 1014,7 hPa 0,0 l/m² 0 min 0 W/m² 9,7 km/h (2 Bft) 95,74 %
30.03.2026 05:20 4,6 °C 3,9 °C 0,0 °C 95 % 1014,6 hPa 0,0 l/m² 0 min 0 W/m² 16,1 km/h (3 Bft) 94,00 %
30.03.2026 05:22 4,6 °C 3,9 °C 0,0 °C 95 % 1014,6 hPa 0,0 l/m² 0 min 0 W/m² 9,7 km/h (2 Bft) 95,74 %
30.03.2026 05:24 4,7 °C 3,9 °C 0,0 °C 95 % 1014,6 hPa 0,0 l/m² 0 min 0 W/m² 9,7 km/h (2 Bft) 95,74 %
30.03.2026 05:26 4,7 °C 3,9 °C 0,0 °C 95 % 1014,7 hPa 0,0 l/m² 0 min 0 W/m² 12,9 km/h (3 Bft) 95,74 %
30.03.2026 05:28 4,7 °C 3,9 °C 0,0 °C 95 % 1014,6 hPa 0,0 l/m² 0 min 0 W/m² 16,1 km/h (3 Bft) 97,96 %
30.03.2026 05:30 4,7 °C 3,9 °C 0,0 °C 95 % 1014,6 hPa 0,0 l/m² 0 min 0 W/m² 6,4 km/h (2 Bft) 100,00 %
30.03.2026 05:32 4,7 °C 3,9 °C 0,0 °C 95 % 1014,7 hPa 0,0 l/m² 0 min 0 W/m² 6,4 km/h (2 Bft) 95,83 %
30.03.2026 05:34 4,7 °C 3,9 °C 0,0 °C 95 % 1014,7 hPa 0,0 l/m² 0 min 0 W/m² 12,9 km/h (3 Bft) 97,37 %
30.03.2026 05:36 4,7 °C 3,9 °C 0,0 °C 95 % 1014,7 hPa 0,0 l/m² 0 min 0 W/m² 9,7 km/h (2 Bft) 97,87 %
30.03.2026 05:38 4,6 °C 3,9 °C 0,0 °C 95 % 1014,7 hPa 0,0 l/m² 0 min 0 W/m² 12,9 km/h (3 Bft) 100,00 %
30.03.2026 05:40 4,6 °C 3,9 °C 0,0 °C 95 % 1014,8 hPa 0,0 l/m² 0 min 0 W/m² 9,7 km/h (2 Bft) 100,00 %
30.03.2026 05:42 4,6 °C 3,9 °C 0,0 °C 95 % 1014,8 hPa 0,0 l/m² 0 min 0 W/m² 6,4 km/h (2 Bft) 100,00 %
30.03.2026 05:44 4,6 °C 3,9 °C 0,0 °C 95 % 1014,8 hPa 0,0 l/m² 0 min 0 W/m² 9,7 km/h (2 Bft) 100,00 %
30.03.2026 05:46 4,6 °C 3,9 °C 0,0 °C 95 % 1014,8 hPa 0,0 l/m² 0 min 0 W/m² 6,4 km/h (2 Bft) 98,00 %
30.03.2026 05:48 4,6 °C 3,9 °C 0,0 °C 95 % 1014,8 hPa 0,0 l/m² 0 min 0 W/m² 12,9 km/h (3 Bft) 100,00 %
30.03.2026 05:50 4,5 °C 3,3 °C 0,0 °C 95 % 1014,9 hPa 0,0 l/m² 0 min 0 W/m² 9,7 km/h (2 Bft) 97,87 %
30.03.2026 05:52 4,5 °C 3,9 °C 0,0 °C 95 % 1015,0 hPa 0,0 l/m² 0 min 0 W/m² 16,1 km/h (3 Bft) 97,87 %
30.03.2026 05:54 4,5 °C 3,3 °C 0,0 °C 95 % 1014,9 hPa 0,0 l/m² 0 min 0 W/m² 12,9 km/h (3 Bft) 100,00 %
30.03.2026 05:56 4,5 °C 3,3 °C 0,0 °C 95 % 1014,9 hPa 0,0 l/m² 0 min 0 W/m² 16,1 km/h (3 Bft) 100,00 %
30.03.2026 05:58 4,4 °C 3,3 °C 0,0 °C 95 % 1014,9 hPa 0,0 l/m² 0 min 0 W/m² 9,7 km/h (2 Bft) 100,00 %
30.03.2026 06:00 4,4 °C 3,3 °C 0,0 °C 95 % 1014,9 hPa 0,0 l/m² 0 min 0 W/m² 6,4 km/h (2 Bft) 100,00 %
30.03.2026 06:02 4,4 °C 3,9 °C 0,0 °C 95 % 1014,8 hPa 0,0 l/m² 0 min 0 W/m² 6,4 km/h (2 Bft) 94,00 %
30.03.2026 06:04 4,4 °C 3,9 °C 0,0 °C 95 % 1015,0 hPa 0,0 l/m² 0 min 0 W/m² 12,9 km/h (3 Bft) 97,83 %
30.03.2026 06:06 4,4 °C 3,9 °C 0,0 °C 95 % 1015,0 hPa 0,0 l/m² 0 min 0 W/m² 9,7 km/h (2 Bft) 97,92 %
30.03.2026 06:08 4,4 °C 3,9 °C 0,0 °C 95 % 1015,0 hPa 0,0 l/m² 0 min 0 W/m² 6,4 km/h (2 Bft) 98,00 %
30.03.2026 06:10 4,4 °C 3,9 °C 0,0 °C 95 % 1015,0 hPa 0,0 l/m² 0 min 0 W/m² 12,9 km/h (3 Bft) 100,00 %
30.03.2026 06:12 4,4 °C 3,9 °C 0,0 °C 95 % 1015,1 hPa 0,0 l/m² 0 min 0 W/m² 9,7 km/h (2 Bft) 97,87 %
30.03.2026 06:14 4,4 °C 3,9 °C 0,0 °C 95 % 1015,1 hPa 0,0 l/m² 0 min 0 W/m² 12,9 km/h (3 Bft) 96,00 %
30.03.2026 06:16 4,4 °C 3,9 °C 0,0 °C 95 % 1015,1 hPa 0,0 l/m² 0 min 0 W/m² 6,4 km/h (2 Bft) 97,87 %
30.03.2026 06:18 4,4 °C 3,9 °C 0,0 °C 95 % 1015,2 hPa 0,0 l/m² 0 min 0 W/m² 9,7 km/h (2 Bft) 97,83 %
30.03.2026 06:20 4,4 °C 3,9 °C 0,0 °C 95 % 1015,1 hPa 0,0 l/m² 0 min 0 W/m² 6,4 km/h (2 Bft) 95,74 %
30.03.2026 06:22 4,5 °C 3,9 °C 0,0 °C 95 % 1015,2 hPa 0,0 l/m² 0 min 0 W/m² 9,7 km/h (2 Bft) 95,74 %
30.03.2026 06:24 4,5 °C 3,9 °C 0,0 °C 95 % 1015,2 hPa 0,0 l/m² 0 min 0 W/m² 16,1 km/h (3 Bft) 97,37 %
30.03.2026 06:26 4,5 °C 3,9 °C 0,0 °C 95 % 1015,3 hPa 0,0 l/m² 0 min 0 W/m² 22,5 km/h (4 Bft) 97,87 %
30.03.2026 06:28 4,6 °C 3,9 °C 0,0 °C 95 % 1015,4 hPa 0,0 l/m² 0 min 0 W/m² 12,9 km/h (3 Bft) 98,00 %
30.03.2026 06:30 4,6 °C 3,9 °C 0,0 °C 95 % 1015,3 hPa 0,0 l/m² 0 min 0 W/m² 29,0 km/h (5 Bft) 98,00 %
30.03.2026 06:32 4,6 °C 3,9 °C 0,0 °C 95 % 1015,3 hPa 0,0 l/m² 0 min 0 W/m² 16,1 km/h (3 Bft) 96,00 %
30.03.2026 06:34 4,7 °C 4,4 °C 0,0 °C 95 % 1015,3 hPa 0,0 l/m² 0 min 0 W/m² 19,3 km/h (3 Bft) 97,87 %
30.03.2026 06:36 4,7 °C 4,4 °C 0,0 °C 95 % 1015,4 hPa 0,0 l/m² 0 min 0 W/m² 22,5 km/h (4 Bft) 97,83 %
30.03.2026 06:38 4,7 °C 3,9 °C 0,0 °C 95 % 1015,2 hPa 0,0 l/m² 0 min 0 W/m² 9,7 km/h (2 Bft) 95,74 %
30.03.2026 06:40 4,7 °C 3,9 °C 0,0 °C 95 % 1015,3 hPa 0,0 l/m² 0 min 0 W/m² 12,9 km/h (3 Bft) 97,87 %
30.03.2026 06:42 4,8 °C 3,9 °C 0,0 °C 95 % 1015,4 hPa 0,0 l/m² 0 min 0 W/m² 9,7 km/h (2 Bft) 100,00 %
30.03.2026 06:44 4,8 °C 3,9 °C 0,0 °C 95 % 1015,4 hPa 0,0 l/m² 0 min 0 W/m² 12,9 km/h (3 Bft) 96,00 %
30.03.2026 06:46 4,8 °C 3,9 °C 0,0 °C 95 % 1015,4 hPa 0,0 l/m² 0 min 0 W/m² 9,7 km/h (2 Bft) 93,62 %
30.03.2026 06:48 4,8 °C 3,9 °C 0,0 °C 95 % 1015,5 hPa 0,0 l/m² 0 min 0 W/m² 16,1 km/h (3 Bft) 95,74 %
30.03.2026 06:50 4,8 °C 4,4 °C 0,0 °C 95 % 1015,5 hPa 0,0 l/m² 0 min 0 W/m² 22,5 km/h (4 Bft) 93,62 %
30.03.2026 06:52 4,8 °C 4,4 °C 0,0 °C 95 % 1015,6 hPa 0,0 l/m² 0 min 0 W/m² 25,7 km/h (4 Bft) 97,37 %
30.03.2026 06:54 4,8 °C 4,4 °C 0,0 °C 95 % 1015,6 hPa 0,0 l/m² 0 min 0 W/m² 51,5 km/h (7 Bft) 92,73 %
30.03.2026 06:56 4,8 °C 4,4 °C 0,0 °C 95 % 1015,7 hPa 0,0 l/m² 0 min 0 W/m² 22,5 km/h (4 Bft) 95,74 %
30.03.2026 06:58 4,8 °C 4,4 °C 0,0 °C 95 % 1015,6 hPa 0,0 l/m² 0 min 0 W/m² 25,7 km/h (4 Bft) 97,87 %
30.03.2026 07:00 4,8 °C 4,4 °C 0,0 °C 95 % 1015,5 hPa 0,0 l/m² 0 min 0 W/m² 25,7 km/h (4 Bft) 97,56 %
30.03.2026 07:02 4,7 °C 3,9 °C 0,0 °C 94 % 1015,5 hPa 0,0 l/m² 0 min 0 W/m² 19,3 km/h (3 Bft) 98,00 %
30.03.2026 07:04 4,7 °C 3,9 °C 0,0 °C 94 % 1015,5 hPa 0,0 l/m² 0 min 0 W/m² 22,5 km/h (4 Bft) 97,87 %
30.03.2026 07:06 4,7 °C 3,9 °C 0,0 °C 94 % 1015,5 hPa 0,0 l/m² 0 min 0 W/m² 29,0 km/h (5 Bft) 97,87 %
30.03.2026 07:08 4,6 °C 3,9 °C -0,6 °C 94 % 1015,5 hPa 0,0 l/m² 0 min 0 W/m² 25,7 km/h (4 Bft) 94,00 %
30.03.2026 07:10 4,6 °C 3,9 °C -0,6 °C 94 % 1015,6 hPa 0,2 l/m² 0 min 0 W/m² 22,5 km/h (4 Bft) 97,87 %
30.03.2026 07:12 4,6 °C 3,9 °C 0,0 °C 94 % 1015,7 hPa 0,0 l/m² 0 min 0 W/m² 19,3 km/h (3 Bft) 97,96 %
30.03.2026 07:14 4,6 °C 3,9 °C 0,0 °C 94 % 1015,7 hPa 0,0 l/m² 0 min 0 W/m² 16,1 km/h (3 Bft) 97,22 %
30.03.2026 07:16 4,6 °C 3,9 °C 0,0 °C 94 % 1015,7 hPa 0,0 l/m² 0 min 0 W/m² 12,9 km/h (3 Bft) 100,00 %
30.03.2026 07:18 4,6 °C 3,9 °C 0,0 °C 94 % 1015,8 hPa 0,0 l/m² 0 min 0 W/m² 6,4 km/h (2 Bft) 97,87 %
30.03.2026 07:20 4,5 °C 3,9 °C 0,0 °C 94 % 1015,8 hPa 0,0 l/m² 0 min 2 W/m² 9,7 km/h (2 Bft) 97,87 %
30.03.2026 07:22 4,5 °C 3,9 °C -0,6 °C 94 % 1015,8 hPa 0,0 l/m² 0 min 5 W/m² 12,9 km/h (3 Bft) 98,00 %
30.03.2026 07:24 4,4 °C 3,9 °C -0,6 °C 94 % 1015,8 hPa 0,0 l/m² 0 min 5 W/m² 9,7 km/h (2 Bft) 98,00 %
30.03.2026 07:26 4,4 °C 3,9 °C -0,6 °C 94 % 1015,8 hPa 0,0 l/m² 0 min 6 W/m² 12,9 km/h (3 Bft) 97,87 %
30.03.2026 07:28 4,4 °C 3,9 °C -0,6 °C 94 % 1015,8 hPa 0,0 l/m² 0 min 7 W/m² 29,0 km/h (5 Bft) 95,65 %
30.03.2026 07:30 4,4 °C 3,9 °C -0,6 °C 94 % 1015,8 hPa 0,0 l/m² 0 min 7 W/m² 16,1 km/h (3 Bft) 97,87 %
30.03.2026 07:32 4,4 °C 3,9 °C -0,6 °C 94 % 1015,8 hPa 0,0 l/m² 0 min 7 W/m² 12,9 km/h (3 Bft) 95,74 %
30.03.2026 07:34 4,4 °C 3,9 °C -0,6 °C 94 % 1015,8 hPa 0,0 l/m² 0 min 9 W/m² 25,7 km/h (4 Bft) 100,00 %
30.03.2026 07:36 4,4 °C 3,9 °C -0,6 °C 94 % 1015,8 hPa 0,0 l/m² 0 min 9 W/m² 12,9 km/h (3 Bft) 96,00 %
30.03.2026 07:38 4,4 °C 3,9 °C -0,6 °C 94 % 1015,9 hPa 0,0 l/m² 0 min 10 W/m² 16,1 km/h (3 Bft) 95,74 %
30.03.2026 07:40 4,5 °C 3,9 °C -0,6 °C 94 % 1015,9 hPa 0,0 l/m² 0 min 11 W/m² 16,1 km/h (3 Bft) 98,00 %
30.03.2026 07:42 4,5 °C 3,9 °C -0,6 °C 94 % 1016,0 hPa 0,0 l/m² 0 min 11 W/m² 12,9 km/h (3 Bft) 97,87 %
30.03.2026 07:44 4,4 °C 3,9 °C -0,6 °C 94 % 1016,0 hPa 0,0 l/m² 0 min 12 W/m² 25,7 km/h (4 Bft) 97,87 %
30.03.2026 07:46 4,5 °C 3,9 °C -0,6 °C 94 % 1016,1 hPa 0,0 l/m² 0 min 17 W/m² 12,9 km/h (3 Bft) 97,83 %
30.03.2026 07:48 4,5 °C 3,9 °C 0,0 °C 94 % 1016,1 hPa 0,0 l/m² 0 min 22 W/m² 12,9 km/h (3 Bft) 96,00 %
30.03.2026 07:50 4,5 °C 3,9 °C 0,0 °C 94 % 1016,1 hPa 0,0 l/m² 0 min 34 W/m² 16,1 km/h (3 Bft) 97,87 %
30.03.2026 07:52 4,6 °C 4,4 °C 0,0 °C 94 % 1016,1 hPa 0,0 l/m² 0 min 38 W/m² 12,9 km/h (3 Bft) 97,87 %
30.03.2026 07:54 4,6 °C 4,4 °C 0,0 °C 94 % 1016,2 hPa 0,0 l/m² 0 min 36 W/m² 16,1 km/h (3 Bft) 97,62 %
30.03.2026 07:56 4,6 °C 4,4 °C 0,0 °C 94 % 1016,2 hPa 0,0 l/m² 2 min 49 W/m² 12,9 km/h (3 Bft) 97,87 %
30.03.2026 07:58 4,7 °C 4,4 °C 0,0 °C 94 % 1016,2 hPa 0,0 l/m² 2 min 84 W/m² 19,3 km/h (3 Bft) 97,62 %
30.03.2026 08:00 4,7 °C 4,4 °C 0,0 °C 94 % 1016,2 hPa 0,0 l/m² 2 min 96 W/m² 29,0 km/h (5 Bft) 100,00 %
30.03.2026 08:02 4,8 °C 4,4 °C 0,0 °C 94 % 1016,1 hPa 0,0 l/m² 2 min 65 W/m² 25,7 km/h (4 Bft) 97,87 %
30.03.2026 08:04 4,8 °C 4,4 °C 0,0 °C 94 % 1016,2 hPa 0,0 l/m² 0 min 57 W/m² 19,3 km/h (3 Bft) 100,00 %
30.03.2026 08:06 4,8 °C 5,0 °C 0,0 °C 94 % 1016,2 hPa 0,0 l/m² 2 min 95 W/m² 22,5 km/h (4 Bft) 100,00 %
30.03.2026 08:08 4,9 °C 5,0 °C 0,0 °C 94 % 1016,2 hPa 0,2 l/m² 2 min 73 W/m² 25,7 km/h (4 Bft) 100,00 %
30.03.2026 08:10 4,9 °C 5,0 °C 0,0 °C 94 % 1016,1 hPa 0,0 l/m² 0 min 61 W/m² 25,7 km/h (4 Bft) 100,00 %
30.03.2026 08:12 4,9 °C 5,0 °C 0,0 °C 94 % 1016,1 hPa 0,0 l/m² 2 min 78 W/m² 32,2 km/h (5 Bft) 97,87 %
30.03.2026 08:14 4,9 °C 5,0 °C 0,0 °C 94 % 1016,2 hPa 0,0 l/m² 2 min 86 W/m² 16,1 km/h (3 Bft) 100,00 %
30.03.2026 08:16 5,0 °C 5,0 °C 0,0 °C 93 % 1016,2 hPa 0,0 l/m² 0 min 69 W/m² 22,5 km/h (4 Bft) 97,87 %
30.03.2026 08:18 5,0 °C 4,4 °C 0,0 °C 93 % 1016,3 hPa 0,0 l/m² 0 min 33 W/m² 19,3 km/h (3 Bft) 100,00 %
30.03.2026 08:20 5,0 °C 4,4 °C 0,0 °C 93 % 1016,4 hPa 0,0 l/m² 0 min 17 W/m² 16,1 km/h (3 Bft) 98,00 %
30.03.2026 08:22 5,0 °C 4,4 °C 0,0 °C 93 % 1016,4 hPa 0,0 l/m² 0 min 17 W/m² 19,3 km/h (3 Bft) 98,00 %
30.03.2026 08:24 5,0 °C 4,4 °C 0,0 °C 93 % 1016,3 hPa 0,0 l/m² 0 min 33 W/m² 19,3 km/h (3 Bft) 100,00 %
30.03.2026 08:26 5,0 °C 4,4 °C 0,0 °C 93 % 1016,3 hPa 0,2 l/m² 0 min 71 W/m² 12,9 km/h (3 Bft) 100,00 %
30.03.2026 08:28 5,0 °C 5,0 °C 0,0 °C 93 % 1016,3 hPa 0,0 l/m² 2 min 99 W/m² 9,7 km/h (2 Bft) 100,00 %
30.03.2026 08:30 5,0 °C 5,0 °C 0,0 °C 93 % 1016,4 hPa 0,0 l/m² 0 min 73 W/m² 16,1 km/h (3 Bft) 97,14 %
30.03.2026 08:32 5,1 °C 5,0 °C 0,0 °C 93 % 1016,4 hPa 0,0 l/m² 0 min 68 W/m² 19,3 km/h (3 Bft) 98,00 %
30.03.2026 08:34 5,1 °C 5,0 °C 0,0 °C 93 % 1016,4 hPa 0,0 l/m² 0 min 79 W/m² 9,7 km/h (2 Bft) 98,00 %
30.03.2026 08:36 5,1 °C 5,0 °C 0,0 °C 93 % 1016,5 hPa 0,0 l/m² 0 min 97 W/m² 16,1 km/h (3 Bft) 95,74 %
30.03.2026 08:38 5,1 °C 5,0 °C 0,0 °C 93 % 1016,5 hPa 0,0 l/m² 2 min 118 W/m² 22,5 km/h (4 Bft) 97,87 %
30.03.2026 08:40 5,1 °C 5,0 °C 0,0 °C 93 % 1016,3 hPa 0,0 l/m² 2 min 125 W/m² 29,0 km/h (5 Bft) 97,87 %
30.03.2026 08:42 5,1 °C 5,0 °C 0,6 °C 93 % 1016,3 hPa 0,0 l/m² 2 min 115 W/m² 22,5 km/h (4 Bft) 95,74 %
30.03.2026 08:44 5,1 °C 5,0 °C 0,6 °C 93 % 1016,3 hPa 0,0 l/m² 0 min 83 W/m² 22,5 km/h (4 Bft) 93,88 %
30.03.2026 08:46 5,1 °C 5,0 °C 0,6 °C 93 % 1016,5 hPa 0,0 l/m² 0 min 43 W/m² 19,3 km/h (3 Bft) 97,87 %
30.03.2026 08:48 5,2 °C 4,4 °C 0,6 °C 93 % 1016,6 hPa 0,0 l/m² 0 min 36 W/m² 19,3 km/h (3 Bft) 97,87 %
30.03.2026 08:50 5,2 °C 5,0 °C 0,6 °C 93 % 1016,5 hPa 0,0 l/m² 0 min 64 W/m² 22,5 km/h (4 Bft) 98,00 %
30.03.2026 08:52 5,2 °C 5,0 °C 0,6 °C 93 % 1016,5 hPa 0,0 l/m² 0 min 72 W/m² 16,1 km/h (3 Bft) 97,87 %
30.03.2026 08:54 5,2 °C 5,0 °C 0,6 °C 93 % 1016,4 hPa 0,0 l/m² 0 min 37 W/m² 9,7 km/h (2 Bft) 97,87 %
30.03.2026 08:56 5,2 °C 5,0 °C 0,6 °C 93 % 1016,5 hPa 0,0 l/m² 0 min 23 W/m² 19,3 km/h (3 Bft) 97,87 %
30.03.2026 08:58 5,2 °C 4,4 °C 0,6 °C 93 % 1016,5 hPa 0,0 l/m² 0 min 25 W/m² 19,3 km/h (3 Bft) 97,14 %
30.03.2026 09:00 5,2 °C 4,4 °C 0,6 °C 93 % 1016,5 hPa 0,0 l/m² 0 min 23 W/m² 9,7 km/h (2 Bft) 100,00 %
30.03.2026 09:02 5,2 °C 4,4 °C 0,6 °C 93 % 1016,5 hPa 0,0 l/m² 0 min 33 W/m² 6,4 km/h (2 Bft) 100,00 %
30.03.2026 09:04 5,2 °C 5,0 °C 0,6 °C 94 % 1016,5 hPa 0,0 l/m² 0 min 80 W/m² 3,2 km/h (1 Bft) 100,00 %
30.03.2026 09:06 5,2 °C 5,0 °C 0,6 °C 94 % 1016,6 hPa 0,0 l/m² 0 min 87 W/m² 6,4 km/h (2 Bft) 100,00 %
30.03.2026 09:08 5,2 °C 5,0 °C 0,6 °C 94 % 1016,5 hPa 0,0 l/m² 0 min 88 W/m² 9,7 km/h (2 Bft) 100,00 %
30.03.2026 09:10 5,2 °C 5,0 °C 0,6 °C 94 % 1016,6 hPa 0,0 l/m² 0 min 94 W/m² 6,4 km/h (2 Bft) 97,87 %
30.03.2026 09:12 5,3 °C 5,0 °C 0,6 °C 94 % 1016,6 hPa 0,0 l/m² 0 min 79 W/m² 6,4 km/h (2 Bft) 100,00 %
30.03.2026 09:14 5,3 °C 5,0 °C 0,6 °C 94 % 1016,6 hPa 0,0 l/m² 0 min 51 W/m² 6,4 km/h (2 Bft) 97,87 %
30.03.2026 09:16 5,3 °C 5,0 °C 0,6 °C 94 % 1016,6 hPa 0,0 l/m² 0 min 54 W/m² 6,4 km/h (2 Bft) 97,83 %
30.03.2026 09:18 5,2 °C 5,0 °C 0,6 °C 94 % 1016,7 hPa 0,0 l/m² 0 min 90 W/m² 6,4 km/h (2 Bft) 100,00 %
30.03.2026 09:20 5,2 °C 5,0 °C 0,6 °C 94 % 1016,6 hPa 0,0 l/m² 0 min 85 W/m² 6,4 km/h (2 Bft) 95,74 %
30.03.2026 09:22 5,2 °C 5,0 °C 0,6 °C 94 % 1016,7 hPa 0,0 l/m² 2 min 167 W/m² 9,7 km/h (2 Bft) 95,74 %
30.03.2026 09:24 5,3 °C 5,0 °C 0,6 °C 94 % 1016,7 hPa 0,0 l/m² 2 min 236 W/m² 6,4 km/h (2 Bft) 97,87 %
30.03.2026 09:26 5,3 °C 5,6 °C 1,1 °C 94 % 1016,7 hPa 0,0 l/m² 2 min 246 W/m² 6,4 km/h (2 Bft) 91,49 %
30.03.2026 09:28 5,4 °C 5,6 °C 1,1 °C 94 % 1016,7 hPa 0,0 l/m² 2 min 245 W/m² 9,7 km/h (2 Bft) 95,74 %
30.03.2026 09:30 5,4 °C 5,6 °C 1,1 °C 94 % 1016,7 hPa 0,0 l/m² 2 min 220 W/m² 12,9 km/h (3 Bft) 97,87 %
30.03.2026 09:32 5,6 °C 6,1 °C 1,1 °C 94 % 1016,7 hPa 0,0 l/m² 0 min 151 W/m² 12,9 km/h (3 Bft) 97,87 %
30.03.2026 09:34 5,6 °C 6,7 °C 1,1 °C 94 % 1016,7 hPa 0,0 l/m² 0 min 167 W/m² 19,3 km/h (3 Bft) 97,83 %
30.03.2026 09:36 5,7 °C 6,7 °C 1,1 °C 94 % 1016,7 hPa 0,0 l/m² 2 min 196 W/m² 9,7 km/h (2 Bft) 95,74 %
30.03.2026 09:38 5,8 °C 7,2 °C 1,1 °C 94 % 1016,7 hPa 0,0 l/m² 0 min 154 W/m² 12,9 km/h (3 Bft) 97,87 %
30.03.2026 09:40 5,8 °C 7,2 °C 1,7 °C 94 % 1016,7 hPa 0,0 l/m² 0 min 145 W/m² 16,1 km/h (3 Bft) 97,87 %
30.03.2026 09:42 5,9 °C 7,2 °C 1,7 °C 94 % 1016,6 hPa 0,0 l/m² 0 min 147 W/m² 12,9 km/h (3 Bft) 97,87 %
30.03.2026 09:44 6,0 °C 6,7 °C 1,7 °C 94 % 1016,6 hPa 0,0 l/m² 0 min 149 W/m² 9,7 km/h (2 Bft) 97,62 %
30.03.2026 09:46 6,1 °C 6,7 °C 1,7 °C 94 % 1016,6 hPa 0,0 l/m² 0 min 135 W/m² 19,3 km/h (3 Bft) 93,62 %
30.03.2026 09:48 6,1 °C 6,7 °C 1,7 °C 94 % 1016,6 hPa 0,0 l/m² 0 min 135 W/m² 12,9 km/h (3 Bft) 93,62 %
30.03.2026 09:50 6,2 °C 6,7 °C 1,7 °C 94 % 1016,6 hPa 0,0 l/m² 0 min 141 W/m² 12,9 km/h (3 Bft) 39,39 %
30.03.2026 09:52 6,2 °C 6,7 °C 2,2 °C 94 % 1016,7 hPa 0,0 l/m² 0 min 182 W/m² 16,1 km/h (3 Bft) 91,49 %
30.03.2026 09:54 6,3 °C 7,2 °C 2,2 °C 93 % 1016,7 hPa 0,0 l/m² 2 min 210 W/m² 16,1 km/h (3 Bft) 96,00 %
30.03.2026 09:56 6,4 °C 7,8 °C 2,8 °C 93 % 1016,8 hPa 0,0 l/m² 2 min 251 W/m² 19,3 km/h (3 Bft) 95,74 %
30.03.2026 09:58 6,5 °C 7,8 °C 2,8 °C 93 % 1016,7 hPa 0,0 l/m² 2 min 233 W/m² 19,3 km/h (3 Bft) 93,62 %
30.03.2026 10:00 6,6 °C 8,9 °C 2,8 °C 93 % 1016,7 hPa 0,0 l/m² 2 min 333 W/m² 16,1 km/h (3 Bft) 95,74 %
30.03.2026 10:02 6,7 °C 9,4 °C 2,8 °C 93 % 1016,8 hPa 0,0 l/m² 2 min 369 W/m² 16,1 km/h (3 Bft) 93,62 %
30.03.2026 10:04 6,7 °C 8,9 °C 2,8 °C 92 % 1016,7 hPa 0,0 l/m² 2 min 272 W/m² 29,0 km/h (5 Bft) 95,74 %
30.03.2026 10:06 6,8 °C 8,3 °C 2,8 °C 91 % 1016,8 hPa 0,0 l/m² 0 min 161 W/m² 16,1 km/h (3 Bft) 95,74 %
30.03.2026 10:08 6,8 °C 7,2 °C 2,8 °C 91 % 1016,8 hPa 0,0 l/m² 0 min 147 W/m² 22,5 km/h (4 Bft) 96,15 %
30.03.2026 10:10 6,9 °C 8,3 °C 2,8 °C 90 % 1016,8 hPa 0,0 l/m² 0 min 162 W/m² 19,3 km/h (3 Bft) 97,87 %
30.03.2026 10:12 6,9 °C 7,8 °C 2,8 °C 90 % 1016,9 hPa 0,0 l/m² 0 min 162 W/m² 19,3 km/h (3 Bft) 94,74 %
30.03.2026 10:14 6,9 °C 7,8 °C 2,8 °C 90 % 1016,9 hPa 0,0 l/m² 0 min 147 W/m² 19,3 km/h (3 Bft) 98,00 %
30.03.2026 10:16 6,9 °C 7,2 °C 2,8 °C 90 % 1016,9 hPa 0,0 l/m² 0 min 108 W/m² 16,1 km/h (3 Bft) 97,87 %
30.03.2026 10:18 6,9 °C 9,4 °C 3,3 °C 89 % 1016,9 hPa 0,0 l/m² 2 min 243 W/m² 29,0 km/h (5 Bft) 95,74 %
30.03.2026 10:20 7,0 °C 11,1 °C 4,4 °C 89 % 1016,9 hPa 0,0 l/m² 2 min 407 W/m² 19,3 km/h (3 Bft) 93,62 %
30.03.2026 10:22 7,1 °C 10,6 °C 4,4 °C 89 % 1016,8 hPa 0,0 l/m² 2 min 473 W/m² 22,5 km/h (4 Bft) 95,74 %
30.03.2026 10:24 7,2 °C 11,7 °C 4,4 °C 89 % 1016,9 hPa 0,0 l/m² 0 min 223 W/m² 16,1 km/h (3 Bft) 95,65 %
30.03.2026 10:26 7,3 °C 11,1 °C 4,4 °C 88 % 1016,9 hPa 0,0 l/m² 0 min 230 W/m² 29,0 km/h (5 Bft) 95,74 %
30.03.2026 10:28 7,4 °C 12,2 °C 5,0 °C 87 % 1016,9 hPa 0,0 l/m² 2 min 244 W/m² 22,5 km/h (4 Bft) 96,00 %
30.03.2026 10:30 7,5 °C 11,7 °C 5,0 °C 87 % 1017,0 hPa 0,0 l/m² 2 min 258 W/m² 29,0 km/h (5 Bft) 96,00 %
30.03.2026 10:32 7,6 °C 11,1 °C 5,0 °C 86 % 1017,0 hPa 0,0 l/m² 0 min 236 W/m² 19,3 km/h (3 Bft) 94,74 %
30.03.2026 10:34 7,6 °C 11,1 °C 5,0 °C 86 % 1017,1 hPa 0,0 l/m² 0 min 236 W/m² 38,6 km/h (5 Bft) 95,74 %
30.03.2026 10:36 7,7 °C 11,7 °C 5,6 °C 85 % 1017,0 hPa 0,0 l/m² 2 min 279 W/m² 19,3 km/h (3 Bft) 95,74 %
30.03.2026 10:38 7,8 °C 10,0 °C 5,0 °C 85 % 1017,0 hPa 0,0 l/m² 2 min 529 W/m² 25,7 km/h (4 Bft) 96,00 %
30.03.2026 10:40 7,8 °C 8,9 °C 4,4 °C 85 % 1017,1 hPa 0,0 l/m² 0 min 194 W/m² 32,2 km/h (5 Bft) 95,74 %
30.03.2026 10:42 7,7 °C 8,9 °C 4,4 °C 84 % 1017,0 hPa 0,0 l/m² 0 min 144 W/m² 25,7 km/h (4 Bft) 97,83 %
30.03.2026 10:44 7,7 °C 9,4 °C 4,4 °C 84 % 1017,1 hPa 0,0 l/m² 0 min 180 W/m² 22,5 km/h (4 Bft) 97,87 %
30.03.2026 10:46 7,8 °C 9,4 °C 4,4 °C 84 % 1017,1 hPa 0,0 l/m² 2 min 266 W/m² 19,3 km/h (3 Bft) 97,87 %
30.03.2026 10:48 7,8 °C 10,6 °C 5,0 °C 84 % 1017,1 hPa 0,0 l/m² 2 min 269 W/m² 32,2 km/h (5 Bft) 98,00 %
30.03.2026 10:50 7,9 °C 10,0 °C 5,0 °C 83 % 1017,1 hPa 0,0 l/m² 2 min 386 W/m² 45,1 km/h (6 Bft) 100,00 %
30.03.2026 10:52 7,9 °C 10,0 °C 5,0 °C 82 % 1017,1 hPa 0,0 l/m² 0 min 196 W/m² 29,0 km/h (5 Bft) 100,00 %
30.03.2026 10:54 7,9 °C 10,6 °C 5,6 °C 82 % 1017,2 hPa 0,0 l/m² 2 min 294 W/m² 22,5 km/h (4 Bft) 100,00 %
30.03.2026 10:56 8,1 °C 11,7 °C 6,1 °C 82 % 1017,2 hPa 0,0 l/m² 2 min 345 W/m² 38,6 km/h (5 Bft) 100,00 %
30.03.2026 10:58 8,2 °C 11,7 °C 6,7 °C 82 % 1017,2 hPa 0,0 l/m² 2 min 409 W/m² 29,0 km/h (5 Bft) 98,00 %
30.03.2026 11:00 8,3 °C 10,6 °C 6,1 °C 81 % 1017,2 hPa 0,0 l/m² 2 min 372 W/m² 22,5 km/h (4 Bft) 100,00 %
30.03.2026 11:02 8,3 °C 10,6 °C 5,6 °C 81 % 1017,2 hPa 0,0 l/m² 2 min 317 W/m² 22,5 km/h (4 Bft) 98,00 %
30.03.2026 11:04 8,4 °C 9,4 °C 5,0 °C 81 % 1017,2 hPa 0,0 l/m² 0 min 242 W/m² 16,1 km/h (3 Bft) 100,00 %
30.03.2026 11:06 8,3 °C 8,3 °C 4,4 °C 81 % 1017,2 hPa 0,0 l/m² 0 min 96 W/m² 41,8 km/h (6 Bft) 100,00 %
30.03.2026 11:08 8,2 °C 9,4 °C 4,4 °C 81 % 1017,3 hPa 0,0 l/m² 0 min 102 W/m² 38,6 km/h (5 Bft) 100,00 %
30.03.2026 11:10 8,1 °C 10,6 °C 5,0 °C 81 % 1017,4 hPa 0,0 l/m² 2 min 553 W/m² 38,6 km/h (5 Bft) 100,00 %
30.03.2026 11:12 8,2 °C 11,1 °C 5,0 °C 81 % 1017,4 hPa 0,0 l/m² 2 min 596 W/m² 25,7 km/h (4 Bft) 98,00 %
30.03.2026 11:14 8,3 °C 12,2 °C 5,6 °C 80 % 1017,4 hPa 0,0 l/m² 2 min 583 W/m² 19,3 km/h (3 Bft) 100,00 %
30.03.2026 11:16 8,3 °C 12,2 °C 5,6 °C 80 % 1017,4 hPa 0,0 l/m² 2 min 587 W/m² 29,0 km/h (5 Bft) 95,74 %
30.03.2026 11:18 8,4 °C 12,8 °C 5,6 °C 79 % 1017,3 hPa 0,0 l/m² 2 min 587 W/m² 38,6 km/h (5 Bft) 97,87 %
30.03.2026 11:20 8,6 °C 13,3 °C 6,1 °C 79 % 1017,4 hPa 0,0 l/m² 2 min 587 W/m² 19,3 km/h (3 Bft) 37,50 %
30.03.2026 11:22 8,6 °C 13,9 °C 6,7 °C 79 % 1017,5 hPa 0,0 l/m² 2 min 582 W/m² 29,0 km/h (5 Bft) 100,00 %
30.03.2026 11:24 8,7 °C 12,2 °C 6,1 °C 78 % 1017,4 hPa 0,0 l/m² 2 min 308 W/m² 35,4 km/h (5 Bft) 100,00 %
30.03.2026 11:26 8,8 °C 12,2 °C 6,7 °C 78 % 1017,5 hPa 0,0 l/m² 0 min 139 W/m² 25,7 km/h (4 Bft) 97,37 %
30.03.2026 11:28 8,8 °C 12,8 °C 7,2 °C 78 % 1017,4 hPa 0,0 l/m² 2 min 316 W/m² 25,7 km/h (4 Bft) 100,00 %
30.03.2026 11:30 8,9 °C 11,1 °C 6,7 °C 78 % 1017,5 hPa 0,0 l/m² 2 min 402 W/m² 22,5 km/h (4 Bft) 100,00 %
30.03.2026 11:32 8,9 °C 10,6 °C 6,7 °C 78 % 1017,6 hPa 0,0 l/m² 0 min 217 W/m² 29,0 km/h (5 Bft) 100,00 %
30.03.2026 11:34 8,9 °C 9,4 °C 5,6 °C 77 % 1017,6 hPa 0,0 l/m² 0 min 188 W/m² 29,0 km/h (5 Bft) 100,00 %
30.03.2026 11:36 8,8 °C 9,4 °C 5,6 °C 78 % 1017,5 hPa 0,0 l/m² 0 min 196 W/m² 38,6 km/h (5 Bft) 100,00 %
30.03.2026 11:38 8,7 °C 8,9 °C 5,0 °C 77 % 1017,6 hPa 0,0 l/m² 0 min 194 W/m² 22,5 km/h (4 Bft) 100,00 %
30.03.2026 11:40 8,6 °C 9,4 °C 5,6 °C 76 % 1017,6 hPa 0,0 l/m² 0 min 231 W/m² 22,5 km/h (4 Bft) 100,00 %
30.03.2026 11:42 8,6 °C 10,0 °C 5,6 °C 77 % 1017,6 hPa 0,0 l/m² 0 min 254 W/m² 25,7 km/h (4 Bft) 100,00 %
30.03.2026 11:44 8,6 °C 12,8 °C 6,7 °C 77 % 1017,6 hPa 0,0 l/m² 0 min 255 W/m² 29,0 km/h (5 Bft) 100,00 %
30.03.2026 11:46 8,7 °C 12,8 °C 7,2 °C 77 % 1017,6 hPa 0,0 l/m² 0 min 255 W/m² 29,0 km/h (5 Bft) 100,00 %
30.03.2026 11:48 8,8 °C 11,7 °C 6,7 °C 77 % 1017,7 hPa 0,0 l/m² 0 min 227 W/m² 22,5 km/h (4 Bft) 97,87 %
30.03.2026 11:50 8,9 °C 10,6 °C 6,7 °C 77 % 1017,6 hPa 0,0 l/m² 0 min 181 W/m² 19,3 km/h (3 Bft) 100,00 %
30.03.2026 11:52 9,0 °C 10,0 °C 6,1 °C 77 % 1017,7 hPa 0,0 l/m² 0 min 180 W/m² 19,3 km/h (3 Bft) 100,00 %
30.03.2026 11:54 8,9 °C 10,0 °C 6,1 °C 77 % 1017,7 hPa 0,0 l/m² 0 min 193 W/m² 29,0 km/h (5 Bft) 100,00 %
30.03.2026 11:56 8,9 °C 11,7 °C 6,7 °C 75 % 1017,6 hPa 0,0 l/m² 0 min 232 W/m² 32,2 km/h (5 Bft) 100,00 %
30.03.2026 11:58 8,9 °C 12,8 °C 7,8 °C 75 % 1017,7 hPa 0,0 l/m² 2 min 729 W/m² 25,7 km/h (4 Bft) 100,00 %
30.03.2026 12:00 9,0 °C 13,9 °C 8,9 °C 75 % 1017,7 hPa 0,0 l/m² 2 min 690 W/m² 25,7 km/h (4 Bft) 100,00 %
30.03.2026 12:02 9,2 °C 13,9 °C 9,4 °C 75 % 1017,7 hPa 0,0 l/m² 2 min 722 W/m² 19,3 km/h (3 Bft) 100,00 %
30.03.2026 12:04 9,3 °C 13,9 °C 9,4 °C 75 % 1017,7 hPa 0,0 l/m² 2 min 750 W/m² 19,3 km/h (3 Bft) 100,00 %
30.03.2026 12:06 9,4 °C 13,9 °C 9,4 °C 74 % 1017,7 hPa 0,0 l/m² 2 min 744 W/m² 22,5 km/h (4 Bft) 100,00 %
30.03.2026 12:08 9,6 °C 14,4 °C 9,4 °C 74 % 1017,6 hPa 0,0 l/m² 2 min 743 W/m² 25,7 km/h (4 Bft) 100,00 %
30.03.2026 12:10 9,7 °C 15,0 °C 10,6 °C 74 % 1017,7 hPa 0,0 l/m² 2 min 688 W/m² 29,0 km/h (5 Bft) 100,00 %
30.03.2026 12:12 9,8 °C 15,6 °C 10,6 °C 72 % 1017,6 hPa 0,0 l/m² 2 min 667 W/m² 35,4 km/h (5 Bft) 96,00 %
30.03.2026 12:14 9,9 °C 16,1 °C 11,1 °C 72 % 1017,6 hPa 0,0 l/m² 2 min 727 W/m² 22,5 km/h (4 Bft) 97,87 %
30.03.2026 12:16 10,1 °C 16,7 °C 11,7 °C 72 % 1017,7 hPa 0,0 l/m² 2 min 798 W/m² 29,0 km/h (5 Bft) 96,00 %
30.03.2026 12:18 10,2 °C 18,3 °C 12,8 °C 72 % 1017,7 hPa 0,0 l/m² 2 min 853 W/m² 35,4 km/h (5 Bft) 94,00 %
30.03.2026 12:20 10,4 °C 15,6 °C 11,1 °C 71 % 1017,7 hPa 0,0 l/m² 2 min 827 W/m² 22,5 km/h (4 Bft) 95,65 %
30.03.2026 12:22 10,3 °C 12,2 °C 9,4 °C 69 % 1017,7 hPa 0,0 l/m² 0 min 127 W/m² 29,0 km/h (5 Bft) 95,74 %
30.03.2026 12:24 10,1 °C 14,4 °C 10,0 °C 69 % 1017,7 hPa 0,0 l/m² 2 min 342 W/m² 22,5 km/h (4 Bft) 94,74 %
30.03.2026 12:26 10,2 °C 16,1 °C 11,1 °C 70 % 1017,7 hPa 0,0 l/m² 2 min 745 W/m² 19,3 km/h (3 Bft) 95,74 %
30.03.2026 12:28 10,4 °C 17,8 °C 12,2 °C 70 % 1017,6 hPa 0,0 l/m² 2 min 750 W/m² 25,7 km/h (4 Bft) 96,00 %
30.03.2026 12:30 10,6 °C 17,8 °C 12,8 °C 70 % 1017,7 hPa 0,0 l/m² 2 min 765 W/m² 16,1 km/h (3 Bft) 96,00 %
30.03.2026 12:32 10,7 °C 18,3 °C 13,3 °C 69 % 1017,6 hPa 0,0 l/m² 2 min 766 W/m² 29,0 km/h (5 Bft) 96,00 %
30.03.2026 12:34 10,7 °C 15,6 °C 11,7 °C 68 % 1017,5 hPa 0,0 l/m² 2 min 414 W/m² 22,5 km/h (4 Bft) 94,29 %
30.03.2026 12:36 10,8 °C 16,7 °C 11,7 °C 68 % 1017,6 hPa 0,0 l/m² 0 min 125 W/m² 29,0 km/h (5 Bft) 96,36 %
30.03.2026 12:38 10,8 °C 18,3 °C 12,2 °C 67 % 1017,6 hPa 0,0 l/m² 2 min 423 W/m² 29,0 km/h (5 Bft) 94,00 %
30.03.2026 12:40 11,0 °C 20,0 °C 12,8 °C 68 % 1017,6 hPa 0,0 l/m² 2 min 771 W/m² 32,2 km/h (5 Bft) 95,74 %
30.03.2026 12:42 11,2 °C 20,6 °C 13,3 °C 66 % 1017,5 hPa 0,0 l/m² 2 min 771 W/m² 32,2 km/h (5 Bft) 95,74 %
30.03.2026 12:44 11,2 °C 17,2 °C 12,2 °C 65 % 1017,4 hPa 0,0 l/m² 2 min 778 W/m² 45,1 km/h (6 Bft) 95,74 %
30.03.2026 12:46 11,3 °C 19,4 °C 12,8 °C 65 % 1017,6 hPa 0,0 l/m² 2 min 765 W/m² 25,7 km/h (4 Bft) 95,74 %
30.03.2026 12:48 11,4 °C 20,0 °C 13,3 °C 65 % 1017,5 hPa 0,0 l/m² 2 min 759 W/m² 29,0 km/h (5 Bft) 95,74 %
30.03.2026 12:50 11,4 °C 19,4 °C 12,8 °C 63 % 1017,5 hPa 0,0 l/m² 2 min 753 W/m² 29,0 km/h (5 Bft) 97,37 %
30.03.2026 12:52 11,4 °C 19,4 °C 13,3 °C 63 % 1017,5 hPa 0,0 l/m² 2 min 732 W/m² 32,2 km/h (5 Bft) 98,00 %
30.03.2026 12:54 11,5 °C 19,4 °C 12,8 °C 63 % 1017,5 hPa 0,0 l/m² 2 min 731 W/m² 32,2 km/h (5 Bft) 97,83 %
30.03.2026 12:56 11,6 °C 20,0 °C 12,8 °C 62 % 1017,5 hPa 0,0 l/m² 2 min 735 W/m² 25,7 km/h (4 Bft) 97,87 %
30.03.2026 12:58 11,6 °C 20,6 °C 12,8 °C 62 % 1017,5 hPa 0,0 l/m² 2 min 765 W/m² 25,7 km/h (4 Bft) 100,00 %
30.03.2026 13:00 11,8 °C 20,6 °C 12,8 °C 63 % 1017,5 hPa 0,0 l/m² 2 min 800 W/m² 35,4 km/h (5 Bft) 98,00 %
30.03.2026 13:02 11,9 °C 20,0 °C 12,2 °C 63 % 1017,4 hPa 0,0 l/m² 2 min 796 W/m² 22,5 km/h (4 Bft) 100,00 %
30.03.2026 13:04 11,9 °C 19,4 °C 11,7 °C 63 % 1017,4 hPa 0,0 l/m² 2 min 798 W/m² 25,7 km/h (4 Bft) 100,00 %
30.03.2026 13:06 12,0 °C 19,4 °C 11,1 °C 64 % 1017,4 hPa 0,0 l/m² 2 min 828 W/m² 32,2 km/h (5 Bft) 100,00 %
30.03.2026 13:08 11,9 °C 15,6 °C 9,4 °C 61 % 1017,4 hPa 0,0 l/m² 2 min 838 W/m² 32,2 km/h (5 Bft) 100,00 %
30.03.2026 13:10 11,8 °C 16,7 °C 8,9 °C 60 % 1017,4 hPa 0,0 l/m² 2 min 824 W/m² 25,7 km/h (4 Bft) 97,83 %
30.03.2026 13:12 11,7 °C 18,3 °C 8,9 °C 62 % 1017,5 hPa 0,0 l/m² 2 min 796 W/m² 22,5 km/h (4 Bft) 100,00 %
30.03.2026 13:14 11,8 °C 19,4 °C 9,4 °C 61 % 1017,4 hPa 0,0 l/m² 2 min 801 W/m² 32,2 km/h (5 Bft) 97,87 %
30.03.2026 13:16 11,8 °C 20,0 °C 10,0 °C 62 % 1017,3 hPa 0,0 l/m² 2 min 817 W/m² 19,3 km/h (3 Bft) 100,00 %
30.03.2026 13:18 11,9 °C 20,0 °C 11,1 °C 62 % 1017,4 hPa 0,0 l/m² 2 min 842 W/m² 19,3 km/h (3 Bft) 100,00 %
30.03.2026 13:20 12,1 °C 21,1 °C 11,7 °C 63 % 1017,4 hPa 0,0 l/m² 2 min 857 W/m² 16,1 km/h (3 Bft) 97,87 %
30.03.2026 13:22 12,3 °C 21,1 °C 12,2 °C 64 % 1017,3 hPa 0,0 l/m² 2 min 868 W/m² 22,5 km/h (4 Bft) 100,00 %
30.03.2026 13:24 12,5 °C 21,7 °C 12,2 °C 63 % 1017,3 hPa 0,0 l/m² 2 min 899 W/m² 29,0 km/h (5 Bft) 100,00 %
30.03.2026 13:26 12,6 °C 18,3 °C 11,1 °C 62 % 1017,4 hPa 0,0 l/m² 2 min 511 W/m² 22,5 km/h (4 Bft) 100,00 %
30.03.2026 13:28 12,5 °C 18,3 °C 11,1 °C 61 % 1017,4 hPa 0,0 l/m² 2 min 679 W/m² 19,3 km/h (3 Bft) 100,00 %
30.03.2026 13:30 12,4 °C 15,6 °C 10,6 °C 61 % 1017,4 hPa 0,0 l/m² 0 min 330 W/m² 22,5 km/h (4 Bft) 100,00 %
30.03.2026 13:32 12,3 °C 13,9 °C 10,0 °C 61 % 1017,4 hPa 0,0 l/m² 0 min 178 W/m² 19,3 km/h (3 Bft) 97,87 %
30.03.2026 13:34 12,1 °C 13,9 °C 8,9 °C 62 % 1017,4 hPa 0,0 l/m² 0 min 161 W/m² 25,7 km/h (4 Bft) 100,00 %
30.03.2026 13:36 11,9 °C 16,1 °C 10,0 °C 60 % 1017,4 hPa 0,0 l/m² 2 min 775 W/m² 29,0 km/h (5 Bft) 100,00 %
30.03.2026 13:38 11,9 °C 18,3 °C 11,1 °C 61 % 1017,4 hPa 0,0 l/m² 2 min 871 W/m² 19,3 km/h (3 Bft) 97,87 %
30.03.2026 13:40 12,0 °C 19,4 °C 11,7 °C 61 % 1017,3 hPa 0,0 l/m² 2 min 863 W/m² 25,7 km/h (4 Bft) 100,00 %
30.03.2026 13:42 12,1 °C 19,4 °C 11,7 °C 60 % 1017,4 hPa 0,0 l/m² 2 min 831 W/m² 29,0 km/h (5 Bft) 98,21 %
30.03.2026 13:44 12,2 °C 19,4 °C 11,1 °C 59 % 1017,3 hPa 0,0 l/m² 2 min 914 W/m² 38,6 km/h (5 Bft) 100,00 %
30.03.2026 13:46 12,1 °C 18,3 °C 10,6 °C 58 % 1017,3 hPa 0,0 l/m² 2 min 932 W/m² 22,5 km/h (4 Bft) 98,00 %
30.03.2026 13:48 12,0 °C 15,6 °C 9,4 °C 58 % 1017,3 hPa 0,0 l/m² 2 min 583 W/m² 29,0 km/h (5 Bft) 100,00 %
30.03.2026 13:50 11,9 °C 14,4 °C 9,4 °C 58 % 1017,3 hPa 0,0 l/m² 0 min 251 W/m² 16,1 km/h (3 Bft) 100,00 %
30.03.2026 13:52 11,8 °C 13,3 °C 8,9 °C 59 % 1017,3 hPa 0,0 l/m² 0 min 272 W/m² 25,7 km/h (4 Bft) 100,00 %
30.03.2026 13:54 11,6 °C 15,6 °C 8,9 °C 60 % 1017,3 hPa 0,0 l/m² 0 min 307 W/m² 22,5 km/h (4 Bft) 100,00 %
30.03.2026 13:56 11,6 °C 16,1 °C 8,9 °C 59 % 1017,3 hPa 0,0 l/m² 2 min 940 W/m² 29,0 km/h (5 Bft) 97,87 %
30.03.2026 13:58 11,6 °C 15,6 °C 8,9 °C 60 % 1017,3 hPa 0,0 l/m² 2 min 940 W/m² 29,0 km/h (5 Bft) 97,83 %
30.03.2026 14:00 11,6 °C 13,9 °C 8,9 °C 60 % 1017,5 hPa 0,0 l/m² 2 min 387 W/m² 22,5 km/h (4 Bft) 100,00 %
30.03.2026 14:02 11,6 °C 12,8 °C 8,3 °C 60 % 1017,4 hPa 0,0 l/m² 0 min 176 W/m² 29,0 km/h (5 Bft) 100,00 %
30.03.2026 14:04 11,4 °C 12,2 °C 7,8 °C 61 % 1017,4 hPa 0,0 l/m² 0 min 155 W/m² 22,5 km/h (4 Bft) 100,00 %
30.03.2026 14:06 11,3 °C 11,7 °C 7,8 °C 61 % 1017,4 hPa 0,0 l/m² 0 min 142 W/m² 25,7 km/h (4 Bft) 100,00 %
30.03.2026 14:08 11,2 °C 13,9 °C 7,8 °C 62 % 1017,4 hPa 0,0 l/m² 0 min 149 W/m² 32,2 km/h (5 Bft) 97,37 %
30.03.2026 14:10 11,3 °C 17,2 °C 7,8 °C 61 % 1017,4 hPa 0,0 l/m² 2 min 679 W/m² 35,4 km/h (5 Bft) 97,87 %
30.03.2026 14:12 11,4 °C 18,3 °C 8,3 °C 61 % 1017,4 hPa 0,0 l/m² 2 min 799 W/m² 19,3 km/h (3 Bft) 98,11 %
30.03.2026 14:14 11,6 °C 17,2 °C 8,3 °C 61 % 1017,4 hPa 0,0 l/m² 2 min 650 W/m² 22,5 km/h (4 Bft) 95,74 %
30.03.2026 14:16 11,6 °C 15,0 °C 7,8 °C 60 % 1017,4 hPa 0,0 l/m² 0 min 108 W/m² 25,7 km/h (4 Bft) 94,29 %
30.03.2026 14:18 11,6 °C 13,3 °C 7,8 °C 60 % 1017,5 hPa 0,0 l/m² 0 min 112 W/m² 29,0 km/h (5 Bft) 98,00 %
30.03.2026 14:20 11,4 °C 13,9 °C 7,2 °C 61 % 1017,5 hPa 0,0 l/m² 0 min 146 W/m² 22,5 km/h (4 Bft) 97,83 %
30.03.2026 14:22 11,3 °C 15,0 °C 7,2 °C 61 % 1017,5 hPa 0,0 l/m² 0 min 146 W/m² 32,2 km/h (5 Bft) 98,11 %
30.03.2026 14:24 11,2 °C 13,3 °C 7,2 °C 60 % 1017,5 hPa 0,0 l/m² 0 min 145 W/m² 25,7 km/h (4 Bft) 98,00 %
30.03.2026 14:26 10,9 °C 11,1 °C 6,7 °C 63 % 1017,5 hPa 0,0 l/m² 0 min 117 W/m² 38,6 km/h (5 Bft) 97,37 %
30.03.2026 14:28 10,6 °C 10,0 °C 6,7 °C 68 % 1017,6 hPa 0,0 l/m² 0 min 96 W/m² 25,7 km/h (4 Bft) 98,00 %
30.03.2026 14:30 10,2 °C 9,4 °C 6,1 °C 69 % 1017,5 hPa 0,0 l/m² 0 min 99 W/m² 25,7 km/h (4 Bft) 97,87 %
30.03.2026 14:32 9,8 °C 9,4 °C 5,6 °C 70 % 1017,6 hPa 0,0 l/m² 0 min 116 W/m² 35,4 km/h (5 Bft) 95,74 %
30.03.2026 14:34 9,6 °C 12,2 °C 5,6 °C 71 % 1017,7 hPa 0,0 l/m² 0 min 132 W/m² 38,6 km/h (5 Bft) 97,83 %
30.03.2026 14:36 9,6 °C 13,9 °C 6,1 °C 72 % 1017,7 hPa 0,0 l/m² 2 min 491 W/m² 41,8 km/h (6 Bft) 95,74 %
30.03.2026 14:38 9,8 °C 15,6 °C 6,7 °C 74 % 1017,7 hPa 0,0 l/m² 2 min 895 W/m² 32,2 km/h (5 Bft) 97,87 %
30.03.2026 14:40 9,9 °C 14,4 °C 6,7 °C 73 % 1017,7 hPa 0,0 l/m² 2 min 666 W/m² 25,7 km/h (4 Bft) 97,87 %
30.03.2026 14:42 10,1 °C 14,4 °C 7,2 °C 73 % 1017,7 hPa 0,0 l/m² 2 min 908 W/m² 29,0 km/h (5 Bft) 100,00 %
30.03.2026 14:44 10,1 °C 14,4 °C 7,2 °C 73 % 1017,7 hPa 0,0 l/m² 2 min 687 W/m² 29,0 km/h (5 Bft) 100,00 %
30.03.2026 14:46 10,2 °C 14,4 °C 7,2 °C 73 % 1017,7 hPa 0,0 l/m² 2 min 614 W/m² 29,0 km/h (5 Bft) 100,00 %
30.03.2026 14:48 10,3 °C 15,6 °C 7,2 °C 72 % 1017,8 hPa 0,0 l/m² 2 min 691 W/m² 22,5 km/h (4 Bft) 100,00 %
30.03.2026 14:50 10,3 °C 15,6 °C 7,2 °C 72 % 1017,7 hPa 0,0 l/m² 2 min 715 W/m² 32,2 km/h (5 Bft) 97,83 %
30.03.2026 14:52 10,4 °C 16,7 °C 7,2 °C 72 % 1017,7 hPa 0,0 l/m² 2 min 672 W/m² 25,7 km/h (4 Bft) 100,00 %
30.03.2026 14:54 10,5 °C 17,2 °C 7,2 °C 70 % 1017,7 hPa 0,0 l/m² 2 min 716 W/m² 22,5 km/h (4 Bft) 100,00 %
30.03.2026 14:56 10,6 °C 16,1 °C 7,2 °C 70 % 1017,7 hPa 0,0 l/m² 2 min 724 W/m² 29,0 km/h (5 Bft) 100,00 %
30.03.2026 14:58 10,6 °C 16,7 °C 7,2 °C 70 % 1017,7 hPa 0,0 l/m² 2 min 705 W/m² 16,1 km/h (3 Bft) 100,00 %
30.03.2026 15:00 10,7 °C 17,2 °C 7,2 °C 69 % 1017,6 hPa 0,0 l/m² 2 min 688 W/m² 22,5 km/h (4 Bft) 100,00 %
30.03.2026 15:02 10,8 °C 17,2 °C 7,2 °C 69 % 1017,7 hPa 0,0 l/m² 2 min 685 W/m² 38,6 km/h (5 Bft) 93,62 %
30.03.2026 15:04 11,0 °C 17,2 °C 7,2 °C 69 % 1017,7 hPa 0,0 l/m² 2 min 684 W/m² 25,7 km/h (4 Bft) 98,00 %
30.03.2026 15:06 11,1 °C 16,7 °C 7,2 °C 69 % 1017,7 hPa 0,0 l/m² 2 min 679 W/m² 19,3 km/h (3 Bft) 97,83 %
30.03.2026 15:08 11,2 °C 17,2 °C 7,2 °C 69 % 1017,7 hPa 0,0 l/m² 2 min 677 W/m² 22,5 km/h (4 Bft) 95,74 %
30.03.2026 15:10 11,3 °C 17,2 °C 7,8 °C 69 % 1017,7 hPa 0,0 l/m² 2 min 678 W/m² 22,5 km/h (4 Bft) 97,87 %
30.03.2026 15:12 11,4 °C 17,2 °C 7,8 °C 69 % 1017,7 hPa 0,0 l/m² 2 min 677 W/m² 22,5 km/h (4 Bft) 97,87 %
30.03.2026 15:14 11,6 °C 17,8 °C 7,8 °C 69 % 1017,7 hPa 0,0 l/m² 2 min 676 W/m² 29,0 km/h (5 Bft) 95,74 %
30.03.2026 15:16 11,8 °C 17,8 °C 7,8 °C 68 % 1017,7 hPa 0,0 l/m² 2 min 680 W/m² 29,0 km/h (5 Bft) 97,87 %
30.03.2026 15:18 11,8 °C 17,8 °C 7,8 °C 68 % 1017,6 hPa 0,0 l/m² 2 min 683 W/m² 22,5 km/h (4 Bft) 97,87 %
30.03.2026 15:20 11,9 °C 17,2 °C 7,8 °C 67 % 1017,7 hPa 0,0 l/m² 2 min 681 W/m² 25,7 km/h (4 Bft) 93,62 %
30.03.2026 15:22 11,8 °C 17,2 °C 7,8 °C 66 % 1017,6 hPa 0,0 l/m² 2 min 689 W/m² 25,7 km/h (4 Bft) 97,83 %
30.03.2026 15:24 11,8 °C 17,8 °C 7,8 °C 67 % 1017,6 hPa 0,0 l/m² 2 min 734 W/m² 29,0 km/h (5 Bft) 97,87 %
30.03.2026 15:26 11,8 °C 17,2 °C 7,8 °C 68 % 1017,7 hPa 0,0 l/m² 2 min 761 W/m² 25,7 km/h (4 Bft) 97,87 %
30.03.2026 15:28 11,9 °C 17,8 °C 8,3 °C 69 % 1017,7 hPa 0,0 l/m² 2 min 766 W/m² 19,3 km/h (3 Bft) 95,74 %
30.03.2026 15:30 12,1 °C 17,8 °C 8,9 °C 68 % 1017,7 hPa 0,0 l/m² 2 min 799 W/m² 32,2 km/h (5 Bft) 93,62 %
30.03.2026 15:32 12,1 °C 17,2 °C 8,3 °C 67 % 1017,7 hPa 0,0 l/m² 2 min 726 W/m² 32,2 km/h (5 Bft) 95,74 %
30.03.2026 15:34 12,0 °C 16,7 °C 8,3 °C 67 % 1017,6 hPa 0,0 l/m² 2 min 612 W/m² 19,3 km/h (3 Bft) 93,62 %
30.03.2026 15:36 11,8 °C 16,1 °C 7,8 °C 66 % 1017,6 hPa 0,0 l/m² 2 min 627 W/m² 22,5 km/h (4 Bft) 93,62 %
30.03.2026 15:38 11,8 °C 16,7 °C 7,8 °C 67 % 1017,7 hPa 0,0 l/m² 2 min 694 W/m² 35,4 km/h (5 Bft) 93,88 %
30.03.2026 15:40 11,8 °C 16,7 °C 7,8 °C 66 % 1017,8 hPa 0,0 l/m² 2 min 712 W/m² 32,2 km/h (5 Bft) 97,22 %
30.03.2026 15:42 11,8 °C 17,2 °C 8,3 °C 66 % 1017,8 hPa 0,0 l/m² 2 min 714 W/m² 41,8 km/h (6 Bft) 93,88 %
30.03.2026 15:44 11,9 °C 16,7 °C 8,3 °C 67 % 1017,7 hPa 0,0 l/m² 2 min 724 W/m² 22,5 km/h (4 Bft) 91,49 %
30.03.2026 15:46 12,0 °C 17,2 °C 8,3 °C 67 % 1017,7 hPa 0,0 l/m² 2 min 752 W/m² 19,3 km/h (3 Bft) 93,62 %
30.03.2026 15:48 12,1 °C 16,1 °C 8,3 °C 67 % 1017,7 hPa 0,0 l/m² 2 min 763 W/m² 22,5 km/h (4 Bft) 95,74 %
30.03.2026 15:50 12,0 °C 15,6 °C 8,3 °C 67 % 1017,7 hPa 0,0 l/m² 2 min 626 W/m² 25,7 km/h (4 Bft) 95,74 %
30.03.2026 15:52 11,8 °C 13,3 °C 7,8 °C 67 % 1017,7 hPa 0,0 l/m² 2 min 338 W/m² 22,5 km/h (4 Bft) 98,00 %
30.03.2026 15:54 11,6 °C 11,7 °C 7,8 °C 67 % 1017,8 hPa 0,0 l/m² 0 min 100 W/m² 16,1 km/h (3 Bft) 95,74 %
30.03.2026 15:56 11,3 °C 10,6 °C 6,7 °C 69 % 1018,3 hPa 0,0 l/m² 0 min 43 W/m² 54,7 km/h (7 Bft) 97,96 %
30.03.2026 15:58 10,8 °C 8,9 °C 5,0 °C 70 % 1018,4 hPa 0,2 l/m² 0 min 22 W/m² 32,2 km/h (5 Bft) 97,87 %
30.03.2026 16:00 10,2 °C 8,3 °C 4,4 °C 71 % 1018,4 hPa 0,2 l/m² 0 min 22 W/m² 29,0 km/h (5 Bft) 97,87 %
30.03.2026 16:02 9,8 °C 7,8 °C 3,9 °C 72 % 1018,3 hPa 0,0 l/m² 0 min 30 W/m² 35,4 km/h (5 Bft) 97,87 %
30.03.2026 16:04 9,3 °C 7,2 °C 3,3 °C 73 % 1018,4 hPa 0,0 l/m² 0 min 39 W/m² 32,2 km/h (5 Bft) 95,74 %
30.03.2026 16:06 8,8 °C 7,2 °C 3,3 °C 75 % 1018,3 hPa 0,0 l/m² 0 min 48 W/m² 22,5 km/h (4 Bft) 96,00 %
30.03.2026 16:08 8,5 °C 6,7 °C 3,3 °C 76 % 1018,2 hPa 0,0 l/m² 0 min 58 W/m² 19,3 km/h (3 Bft) 97,37 %
30.03.2026 16:10 8,2 °C 6,7 °C 3,3 °C 78 % 1018,2 hPa 0,0 l/m² 0 min 63 W/m² 12,9 km/h (3 Bft) 95,74 %
30.03.2026 16:12 7,9 °C 6,7 °C 3,3 °C 79 % 1018,2 hPa 0,0 l/m² 0 min 67 W/m² 16,1 km/h (3 Bft) 95,74 %
30.03.2026 16:14 7,8 °C 7,2 °C 3,9 °C 80 % 1018,2 hPa 0,0 l/m² 0 min 73 W/m² 12,9 km/h (3 Bft) 93,48 %
30.03.2026 16:16 7,7 °C 7,2 °C 3,9 °C 81 % 1018,2 hPa 0,0 l/m² 0 min 95 W/m² 12,9 km/h (3 Bft) 94,00 %
30.03.2026 16:18 7,7 °C 7,2 °C 3,9 °C 81 % 1018,2 hPa 0,0 l/m² 0 min 119 W/m² 12,9 km/h (3 Bft) 95,74 %
30.03.2026 16:20 7,6 °C 7,8 °C 3,9 °C 82 % 1018,2 hPa 0,0 l/m² 0 min 147 W/m² 12,9 km/h (3 Bft) 95,74 %
30.03.2026 16:22 7,6 °C 8,3 °C 3,9 °C 81 % 1018,2 hPa 0,0 l/m² 0 min 182 W/m² 6,4 km/h (2 Bft) 95,74 %
30.03.2026 16:24 7,7 °C 8,9 °C 4,4 °C 82 % 1018,2 hPa 0,0 l/m² 2 min 286 W/m² 16,1 km/h (3 Bft) 91,49 %
30.03.2026 16:26 7,7 °C 10,0 °C 4,4 °C 82 % 1018,2 hPa 0,0 l/m² 2 min 292 W/m² 12,9 km/h (3 Bft) 95,74 %
30.03.2026 16:28 7,8 °C 11,1 °C 4,4 °C 82 % 1018,2 hPa 0,0 l/m² 2 min 323 W/m² 16,1 km/h (3 Bft) 95,65 %
30.03.2026 16:30 8,0 °C 12,8 °C 5,0 °C 83 % 1018,2 hPa 0,0 l/m² 2 min 546 W/m² 12,9 km/h (3 Bft) 94,87 %
30.03.2026 16:32 8,2 °C 13,3 °C 5,0 °C 82 % 1018,2 hPa 0,0 l/m² 2 min 527 W/m² 16,1 km/h (3 Bft) 96,15 %
30.03.2026 16:34 8,4 °C 13,9 °C 5,6 °C 82 % 1018,2 hPa 0,0 l/m² 2 min 517 W/m² 19,3 km/h (3 Bft) 93,62 %
30.03.2026 16:36 8,7 °C 14,4 °C 5,6 °C 82 % 1018,2 hPa 0,0 l/m² 2 min 507 W/m² 12,9 km/h (3 Bft) 97,87 %
30.03.2026 16:38 8,9 °C 14,4 °C 6,1 °C 81 % 1018,2 hPa 0,0 l/m² 2 min 502 W/m² 12,9 km/h (3 Bft) 95,74 %
30.03.2026 16:40 9,1 °C 15,0 °C 6,1 °C 80 % 1018,2 hPa 0,0 l/m² 2 min 497 W/m² 19,3 km/h (3 Bft) 97,87 %
30.03.2026 16:42 9,3 °C 14,4 °C 6,7 °C 79 % 1018,2 hPa 0,0 l/m² 2 min 493 W/m² 29,0 km/h (5 Bft) 100,00 %
30.03.2026 16:44 9,5 °C 15,0 °C 6,7 °C 78 % 1018,2 hPa 0,0 l/m² 2 min 493 W/m² 9,7 km/h (2 Bft) 100,00 %
30.03.2026 16:46 9,7 °C 15,6 °C 6,7 °C 78 % 1018,3 hPa 0,0 l/m² 2 min 491 W/m² 12,9 km/h (3 Bft) 100,00 %
30.03.2026 16:48 9,9 °C 15,6 °C 7,2 °C 77 % 1018,3 hPa 0,0 l/m² 2 min 487 W/m² 12,9 km/h (3 Bft) 100,00 %
30.03.2026 16:50 10,1 °C 15,6 °C 7,2 °C 77 % 1018,3 hPa 0,0 l/m² 2 min 491 W/m² 12,9 km/h (3 Bft) 100,00 %
30.03.2026 16:52 10,3 °C 15,6 °C 7,2 °C 76 % 1018,4 hPa 0,0 l/m² 2 min 521 W/m² 12,9 km/h (3 Bft) 100,00 %
30.03.2026 16:54 10,4 °C 14,4 °C 7,2 °C 75 % 1018,3 hPa 0,0 l/m² 2 min 518 W/m² 12,9 km/h (3 Bft) 100,00 %
30.03.2026 16:56 10,4 °C 12,2 °C 6,7 °C 74 % 1018,3 hPa 0,0 l/m² 0 min 116 W/m² 22,5 km/h (4 Bft) 100,00 %
30.03.2026 16:58 10,3 °C 11,1 °C 6,7 °C 74 % 1018,4 hPa 0,0 l/m² 0 min 110 W/m² 12,9 km/h (3 Bft) 97,37 %
30.03.2026 17:00 10,3 °C 10,6 °C 6,7 °C 74 % 1018,4 hPa 0,0 l/m² 0 min 137 W/m² 16,1 km/h (3 Bft) 98,21 %
30.03.2026 17:02 10,2 °C 10,0 °C 6,1 °C 74 % 1018,5 hPa 0,0 l/m² 0 min 89 W/m² 19,3 km/h (3 Bft) 97,96 %
30.03.2026 17:04 10,1 °C 9,4 °C 6,1 °C 75 % 1018,6 hPa 0,0 l/m² 0 min 54 W/m² 16,1 km/h (3 Bft) 100,00 %
30.03.2026 17:06 9,7 °C 8,3 °C 5,0 °C 73 % 1018,7 hPa 0,0 l/m² 0 min 82 W/m² 57,9 km/h (7 Bft) 100,00 %
30.03.2026 17:08 9,3 °C 7,8 °C 4,4 °C 72 % 1018,7 hPa 0,0 l/m² 0 min 97 W/m² 38,6 km/h (5 Bft) 100,00 %
30.03.2026 17:10 8,8 °C 7,2 °C 3,3 °C 73 % 1018,8 hPa 0,2 l/m² 0 min 86 W/m² 41,8 km/h (6 Bft) 100,00 %
30.03.2026 17:12 8,4 °C 7,2 °C 2,8 °C 74 % 1019,0 hPa 0,2 l/m² 0 min 110 W/m² 35,4 km/h (5 Bft) 100,00 %
30.03.2026 17:14 8,1 °C 7,8 °C 2,8 °C 75 % 1018,8 hPa 0,0 l/m² 2 min 242 W/m² 35,4 km/h (5 Bft) 100,00 %
30.03.2026 17:16 7,9 °C 7,8 °C 2,8 °C 76 % 1018,8 hPa 0,0 l/m² 2 min 272 W/m² 16,1 km/h (3 Bft) 100,00 %
30.03.2026 17:18 7,8 °C 8,3 °C 3,3 °C 78 % 1018,8 hPa 0,0 l/m² 2 min 263 W/m² 29,0 km/h (5 Bft) 100,00 %
30.03.2026 17:20 7,8 °C 9,4 °C 3,3 °C 78 % 1018,7 hPa 0,0 l/m² 2 min 287 W/m² 19,3 km/h (3 Bft) 100,00 %
30.03.2026 17:22 7,8 °C 10,6 °C 3,9 °C 79 % 1018,8 hPa 0,0 l/m² 2 min 361 W/m² 22,5 km/h (4 Bft) 100,00 %
30.03.2026 17:24 7,9 °C 11,1 °C 4,4 °C 80 % 1018,8 hPa 0,0 l/m² 2 min 379 W/m² 29,0 km/h (5 Bft) 100,00 %
30.03.2026 17:26 8,0 °C 10,6 °C 4,4 °C 80 % 1018,8 hPa 0,0 l/m² 2 min 232 W/m² 29,0 km/h (5 Bft) 100,00 %
30.03.2026 17:28 8,1 °C 10,6 °C 4,4 °C 80 % 1018,9 hPa 0,0 l/m² 2 min 228 W/m² 19,3 km/h (3 Bft) 100,00 %
30.03.2026 17:30 8,1 °C 11,7 °C 4,4 °C 81 % 1018,8 hPa 0,0 l/m² 2 min 290 W/m² 12,9 km/h (3 Bft) 100,00 %
30.03.2026 17:32 8,3 °C 11,7 °C 5,0 °C 82 % 1018,8 hPa 0,0 l/m² 2 min 396 W/m² 9,7 km/h (2 Bft) 100,00 %
30.03.2026 17:34 8,4 °C 10,6 °C 4,4 °C 81 % 1018,8 hPa 0,0 l/m² 2 min 304 W/m² 6,4 km/h (2 Bft) 100,00 %
30.03.2026 17:36 8,5 °C 10,0 °C 4,4 °C 81 % 1018,8 hPa 0,0 l/m² 0 min 97 W/m² 9,7 km/h (2 Bft) 100,00 %
30.03.2026 17:38 8,6 °C 10,6 °C 4,4 °C 81 % 1018,8 hPa 0,0 l/m² 0 min 118 W/m² 9,7 km/h (2 Bft) 100,00 %
30.03.2026 17:40 8,6 °C 11,1 °C 4,4 °C 81 % 1018,8 hPa 0,0 l/m² 2 min 319 W/m² 9,7 km/h (2 Bft) 100,00 %
30.03.2026 17:42 8,7 °C 12,2 °C 5,0 °C 81 % 1018,9 hPa 0,0 l/m² 2 min 407 W/m² 9,7 km/h (2 Bft) 98,11 %
30.03.2026 17:44 8,8 °C 12,2 °C 5,0 °C 81 % 1018,9 hPa 0,0 l/m² 2 min 346 W/m² 3,2 km/h (1 Bft) 100,00 %
30.03.2026 17:46 9,0 °C 13,3 °C 5,0 °C 81 % 1018,9 hPa 0,0 l/m² 2 min 329 W/m² 3,2 km/h (1 Bft) 100,00 %
30.03.2026 17:48 9,2 °C 13,3 °C 5,0 °C 80 % 1018,9 hPa 0,0 l/m² 2 min 318 W/m² 6,4 km/h (2 Bft) 100,00 %
30.03.2026 17:50 9,3 °C 13,9 °C 5,6 °C 80 % 1019,0 hPa 0,0 l/m² 2 min 309 W/m² 9,7 km/h (2 Bft) 100,00 %
30.03.2026 17:52 9,4 °C 13,9 °C 5,6 °C 79 % 1019,0 hPa 0,0 l/m² 2 min 303 W/m² 9,7 km/h (2 Bft) 100,00 %
30.03.2026 17:54 9,6 °C 13,9 °C 5,6 °C 79 % 1019,0 hPa 0,0 l/m² 2 min 297 W/m² 12,9 km/h (3 Bft) 100,00 %
30.03.2026 17:56 9,7 °C 13,9 °C 6,1 °C 78 % 1019,0 hPa 0,0 l/m² 2 min 293 W/m² 9,7 km/h (2 Bft) 100,00 %
30.03.2026 17:58 9,8 °C 14,4 °C 6,1 °C 77 % 1019,1 hPa 0,0 l/m² 2 min 299 W/m² 16,1 km/h (3 Bft) 100,00 %
30.03.2026 18:00 9,9 °C 13,3 °C 6,1 °C 77 % 1019,1 hPa 0,0 l/m² 2 min 318 W/m² 19,3 km/h (3 Bft) 98,00 %
30.03.2026 18:02 9,9 °C 13,3 °C 6,1 °C 76 % 1019,1 hPa 0,0 l/m² 2 min 214 W/m² 19,3 km/h (3 Bft) 100,00 %
30.03.2026 18:04 9,9 °C 12,2 °C 6,1 °C 75 % 1019,1 hPa 0,0 l/m² 2 min 165 W/m² 22,5 km/h (4 Bft) 100,00 %
30.03.2026 18:07 9,9 °C 11,1 °C 6,1 °C 75 % 1019,1 hPa 0,0 l/m² 3 min 220 W/m² 9,7 km/h (2 Bft) 98,55 %
30.03.2026 18:08 9,9 °C 11,1 °C 6,1 °C 74 % 1019,1 hPa 0,0 l/m² 0 min 80 W/m² 6,4 km/h (2 Bft) 100,00 %
30.03.2026 18:10 9,9 °C 10,6 °C 5,6 °C 75 % 1019,2 hPa 0,0 l/m² 0 min 116 W/m² 9,7 km/h (2 Bft) 100,00 %
30.03.2026 18:12 9,9 °C 10,6 °C 5,6 °C 75 % 1019,1 hPa 0,0 l/m² 2 min 142 W/m² 9,7 km/h (2 Bft) 97,87 %
30.03.2026 18:14 9,9 °C 10,6 °C 5,6 °C 75 % 1019,2 hPa 0,0 l/m² 2 min 173 W/m² 12,9 km/h (3 Bft) 97,87 %
30.03.2026 18:16 9,9 °C 10,6 °C 5,6 °C 75 % 1019,2 hPa 0,0 l/m² 2 min 247 W/m² 9,7 km/h (2 Bft) 97,14 %
30.03.2026 18:18 9,9 °C 10,6 °C 5,6 °C 75 % 1019,3 hPa 0,0 l/m² 2 min 271 W/m² 16,1 km/h (3 Bft) 98,00 %
30.03.2026 18:20 9,9 °C 10,6 °C 6,1 °C 75 % 1019,3 hPa 0,0 l/m² 2 min 133 W/m² 16,1 km/h (3 Bft) 97,87 %
30.03.2026 18:22 9,8 °C 10,0 °C 5,6 °C 74 % 1019,3 hPa 0,0 l/m² 0 min 67 W/m² 9,7 km/h (2 Bft) 95,74 %
30.03.2026 18:24 9,8 °C 10,0 °C 5,6 °C 74 % 1019,5 hPa 0,0 l/m² 0 min 36 W/m² 19,3 km/h (3 Bft) 95,65 %
30.03.2026 18:26 9,6 °C 8,3 °C 4,4 °C 74 % 1019,6 hPa 0,0 l/m² 0 min 27 W/m² 22,5 km/h (4 Bft) 93,62 %
30.03.2026 18:28 9,2 °C 7,8 °C 3,9 °C 74 % 1019,6 hPa 0,2 l/m² 0 min 31 W/m² 16,1 km/h (3 Bft) 95,74 %
30.03.2026 18:30 8,8 °C 7,2 °C 3,3 °C 75 % 1019,5 hPa 0,0 l/m² 0 min 33 W/m² 9,7 km/h (2 Bft) 97,87 %
30.03.2026 18:32 8,6 °C 7,2 °C 3,3 °C 76 % 1019,7 hPa 0,0 l/m² 0 min 25 W/m² 12,9 km/h (3 Bft) 96,00 %
30.03.2026 18:34 8,3 °C 6,7 °C 3,3 °C 77 % 1019,7 hPa 0,0 l/m² 0 min 23 W/m² 16,1 km/h (3 Bft) 96,00 %
30.03.2026 18:36 8,1 °C 6,7 °C 3,3 °C 77 % 1019,7 hPa 0,0 l/m² 0 min 27 W/m² 19,3 km/h (3 Bft) 95,74 %
30.03.2026 18:38 8,0 °C 6,7 °C 3,3 °C 78 % 1019,6 hPa 0,0 l/m² 0 min 39 W/m² 16,1 km/h (3 Bft) 95,74 %
30.03.2026 18:40 7,9 °C 6,7 °C 3,3 °C 79 % 1019,6 hPa 0,0 l/m² 0 min 56 W/m² 12,9 km/h (3 Bft) 93,48 %
30.03.2026 18:42 7,8 °C 7,2 °C 3,3 °C 79 % 1019,6 hPa 0,0 l/m² 0 min 74 W/m² 12,9 km/h (3 Bft) 95,74 %
30.03.2026 18:44 7,7 °C 7,2 °C 3,3 °C 80 % 1019,7 hPa 0,0 l/m² 0 min 72 W/m² 9,7 km/h (2 Bft) 93,62 %
30.03.2026 18:46 7,7 °C 7,8 °C 3,3 °C 80 % 1019,7 hPa 0,0 l/m² 0 min 70 W/m² 9,7 km/h (2 Bft) 95,74 %
30.03.2026 18:48 7,7 °C 7,8 °C 3,9 °C 80 % 1019,8 hPa 0,0 l/m² 2 min 113 W/m² 9,7 km/h (2 Bft) 95,74 %
30.03.2026 18:50 7,7 °C 8,3 °C 3,9 °C 81 % 1019,8 hPa 0,0 l/m² 2 min 121 W/m² 6,4 km/h (2 Bft) 95,74 %
30.03.2026 18:52 7,7 °C 8,3 °C 3,9 °C 81 % 1019,9 hPa 0,0 l/m² 2 min 108 W/m² 9,7 km/h (2 Bft) 94,74 %
30.03.2026 18:54 7,8 °C 8,9 °C 3,9 °C 82 % 1019,9 hPa 0,0 l/m² 2 min 96 W/m² 9,7 km/h (2 Bft) 94,44 %
30.03.2026 18:56 7,9 °C 8,9 °C 4,4 °C 82 % 1019,9 hPa 0,0 l/m² 2 min 90 W/m² 9,7 km/h (2 Bft) 95,92 %
30.03.2026 18:58 8,0 °C 8,9 °C 4,4 °C 82 % 1020,0 hPa 0,0 l/m² 0 min 50 W/m² 16,1 km/h (3 Bft) 95,74 %
30.03.2026 19:00 8,0 °C 8,3 °C 4,4 °C 81 % 1020,0 hPa 0,0 l/m² 0 min 38 W/m² 12,9 km/h (3 Bft) 95,74 %
30.03.2026 19:02 8,0 °C 7,8 °C 3,9 °C 81 % 1020,1 hPa 0,0 l/m² 0 min 29 W/m² 9,7 km/h (2 Bft) 95,12 %
30.03.2026 19:04 7,9 °C 7,8 °C 3,9 °C 81 % 1020,1 hPa 0,0 l/m² 0 min 23 W/m² 19,3 km/h (3 Bft) 95,74 %
30.03.2026 19:06 7,9 °C 7,2 °C 3,9 °C 80 % 1019,9 hPa 0,0 l/m² 0 min 27 W/m² 19,3 km/h (3 Bft) 96,30 %
30.03.2026 19:08 7,8 °C 7,2 °C 3,3 °C 79 % 1019,8 hPa 0,0 l/m² 0 min 39 W/m² 19,3 km/h (3 Bft) 94,29 %
30.03.2026 19:10 7,7 °C 7,2 °C 3,3 °C 78 % 1019,9 hPa 0,0 l/m² 0 min 44 W/m² 22,5 km/h (4 Bft) 95,74 %
30.03.2026 19:12 7,7 °C 7,2 °C 3,3 °C 76 % 1020,0 hPa 0,0 l/m² 0 min 35 W/m² 32,2 km/h (5 Bft) 95,74 %
30.03.2026 19:14 7,6 °C 7,2 °C 3,3 °C 76 % 1020,0 hPa 0,0 l/m² 0 min 25 W/m² 29,0 km/h (5 Bft) 94,23 %
30.03.2026 19:16 7,6 °C 7,2 °C 3,3 °C 76 % 1020,1 hPa 0,0 l/m² 0 min 19 W/m² 29,0 km/h (5 Bft) 97,87 %
30.03.2026 19:18 7,6 °C 6,7 °C 3,3 °C 75 % 1020,1 hPa 0,0 l/m² 0 min 15 W/m² 19,3 km/h (3 Bft) 98,00 %
30.03.2026 19:20 7,6 °C 6,7 °C 3,3 °C 76 % 1020,1 hPa 0,0 l/m² 0 min 14 W/m² 9,7 km/h (2 Bft) 95,74 %
30.03.2026 19:22 7,6 °C 6,7 °C 3,3 °C 75 % 1020,1 hPa 0,0 l/m² 0 min 12 W/m² 16,1 km/h (3 Bft) 97,56 %
30.03.2026 19:24 7,5 °C 6,7 °C 3,3 °C 75 % 1020,1 hPa 0,0 l/m² 0 min 11 W/m² 16,1 km/h (3 Bft) 98,00 %
30.03.2026 19:26 7,4 °C 6,7 °C 3,3 °C 75 % 1020,2 hPa 0,0 l/m² 0 min 11 W/m² 12,9 km/h (3 Bft) 96,00 %
30.03.2026 19:28 7,4 °C 6,7 °C 3,3 °C 75 % 1020,3 hPa 0,0 l/m² 0 min 11 W/m² 6,4 km/h (2 Bft) 97,37 %
30.03.2026 19:30 7,4 °C 6,7 °C 2,8 °C 76 % 1020,3 hPa 0,0 l/m² 0 min 9 W/m² 9,7 km/h (2 Bft) 93,88 %
30.03.2026 19:32 7,4 °C 6,1 °C 2,8 °C 76 % 1020,4 hPa 0,0 l/m² 0 min 9 W/m² 9,7 km/h (2 Bft) 96,00 %
30.03.2026 19:34 7,3 °C 6,1 °C 2,8 °C 76 % 1020,4 hPa 0,0 l/m² 0 min 8 W/m² 12,9 km/h (3 Bft) 97,87 %
30.03.2026 19:36 7,3 °C 6,7 °C 2,8 °C 77 % 1020,4 hPa 0,0 l/m² 0 min 7 W/m² 9,7 km/h (2 Bft) 97,87 %
30.03.2026 19:38 7,3 °C 6,7 °C 2,8 °C 78 % 1020,5 hPa 0,0 l/m² 0 min 5 W/m² 12,9 km/h (3 Bft) 100,00 %
30.03.2026 19:40 7,3 °C 6,7 °C 2,8 °C 78 % 1020,6 hPa 0,0 l/m² 0 min 5 W/m² 16,1 km/h (3 Bft) 100,00 %
30.03.2026 19:42 7,3 °C 6,7 °C 3,3 °C 78 % 1020,7 hPa 0,0 l/m² 0 min 1 W/m² 19,3 km/h (3 Bft) 100,00 %
30.03.2026 19:44 7,3 °C 6,7 °C 3,3 °C 79 % 1020,8 hPa 0,0 l/m² 0 min 0 W/m² 41,8 km/h (6 Bft) 100,00 %
30.03.2026 19:46 7,3 °C 6,7 °C 3,3 °C 79 % 1020,7 hPa 0,0 l/m² 0 min 5 W/m² 25,7 km/h (4 Bft) 100,00 %
30.03.2026 19:48 7,3 °C 6,7 °C 3,3 °C 79 % 1020,8 hPa 0,0 l/m² 0 min 5 W/m² 16,1 km/h (3 Bft) 97,96 %
30.03.2026 19:50 7,3 °C 6,7 °C 3,3 °C 79 % 1020,8 hPa 0,0 l/m² 0 min 7 W/m² 16,1 km/h (3 Bft) 100,00 %
30.03.2026 19:52 7,3 °C 6,7 °C 3,3 °C 79 % 1020,8 hPa 0,0 l/m² 0 min 8 W/m² 19,3 km/h (3 Bft) 100,00 %
30.03.2026 19:54 7,3 °C 6,7 °C 2,8 °C 79 % 1020,8 hPa 0,0 l/m² 0 min 11 W/m² 16,1 km/h (3 Bft) 97,87 %
30.03.2026 19:56 7,3 °C 6,7 °C 2,8 °C 80 % 1020,9 hPa 0,0 l/m² 0 min 12 W/m² 12,9 km/h (3 Bft) 100,00 %
30.03.2026 19:58 7,3 °C 6,7 °C 2,8 °C 80 % 1020,9 hPa 0,0 l/m² 0 min 10 W/m² 19,3 km/h (3 Bft) 100,00 %
30.03.2026 20:00 7,2 °C 6,7 °C 2,8 °C 80 % 1021,0 hPa 0,0 l/m² 0 min 6 W/m² 16,1 km/h (3 Bft) 100,00 %
30.03.2026 20:02 7,2 °C 6,1 °C 2,8 °C 79 % 1021,1 hPa 0,0 l/m² 0 min 3 W/m² 16,1 km/h (3 Bft) 100,00 %
30.03.2026 20:04 7,2 °C 6,1 °C 2,8 °C 79 % 1021,1 hPa 0,0 l/m² 0 min 0 W/m² 16,1 km/h (3 Bft) 97,87 %
30.03.2026 20:06 7,1 °C 6,1 °C 2,8 °C 79 % 1021,1 hPa 0,0 l/m² 0 min 0 W/m² 16,1 km/h (3 Bft) 100,00 %
30.03.2026 20:08 7,1 °C 6,1 °C 2,8 °C 79 % 1021,2 hPa 0,0 l/m² 0 min 0 W/m² 12,9 km/h (3 Bft) 97,37 %
30.03.2026 20:10 7,0 °C 6,1 °C 2,8 °C 79 % 1021,2 hPa 0,0 l/m² 0 min 0 W/m² 16,1 km/h (3 Bft) 97,87 %
30.03.2026 20:12 6,9 °C 6,1 °C 2,8 °C 79 % 1021,3 hPa 0,0 l/m² 0 min 0 W/m² 9,7 km/h (2 Bft) 96,00 %
30.03.2026 20:14 6,9 °C 6,1 °C 2,8 °C 80 % 1021,3 hPa 0,0 l/m² 0 min 0 W/m² 12,9 km/h (3 Bft) 97,87 %
30.03.2026 20:16 6,9 °C 5,6 °C 2,2 °C 80 % 1021,4 hPa 0,0 l/m² 0 min 0 W/m² 9,7 km/h (2 Bft) 94,29 %
30.03.2026 20:18 6,8 °C 5,6 °C 2,2 °C 80 % 1021,4 hPa 0,0 l/m² 0 min 0 W/m² 16,1 km/h (3 Bft) 98,11 %
30.03.2026 20:20 6,8 °C 5,6 °C 2,2 °C 80 % 1021,4 hPa 0,0 l/m² 0 min 0 W/m² 16,1 km/h (3 Bft) 98,08 %
30.03.2026 20:22 6,8 °C 5,6 °C 2,2 °C 81 % 1021,5 hPa 0,0 l/m² 0 min 0 W/m² 16,1 km/h (3 Bft) 95,74 %
30.03.2026 20:24 6,8 °C 5,6 °C 2,2 °C 81 % 1021,5 hPa 0,0 l/m² 0 min 0 W/m² 9,7 km/h (2 Bft) 97,87 %
30.03.2026 20:26 6,7 °C 5,6 °C 2,2 °C 81 % 1021,6 hPa 0,0 l/m² 0 min 0 W/m² 16,1 km/h (3 Bft) 97,62 %
30.03.2026 20:28 6,7 °C 5,6 °C 2,2 °C 81 % 1021,6 hPa 0,0 l/m² 0 min 0 W/m² 12,9 km/h (3 Bft) 97,87 %
30.03.2026 20:30 6,7 °C 6,1 °C 2,2 °C 81 % 1021,7 hPa 0,0 l/m² 0 min 0 W/m² 12,9 km/h (3 Bft) 94,00 %
30.03.2026 20:32 6,7 °C 6,1 °C 2,8 °C 81 % 1021,7 hPa 0,0 l/m² 0 min 0 W/m² 9,7 km/h (2 Bft) 53,33 %
30.03.2026 20:34 6,6 °C 6,1 °C 2,8 °C 81 % 1021,7 hPa 0,0 l/m² 0 min 0 W/m² 16,1 km/h (3 Bft) 91,49 %
30.03.2026 20:36 6,7 °C 6,1 °C 2,8 °C 81 % 1021,8 hPa 0,0 l/m² 0 min 0 W/m² 6,4 km/h (2 Bft) 97,83 %
30.03.2026 20:38 6,7 °C 5,6 °C 2,8 °C 81 % 1021,8 hPa 0,0 l/m² 0 min 0 W/m² 12,9 km/h (3 Bft) 97,87 %
30.03.2026 20:40 6,6 °C 5,6 °C 2,2 °C 82 % 1021,9 hPa 0,0 l/m² 0 min 0 W/m² 12,9 km/h (3 Bft) 96,00 %
30.03.2026 20:42 6,6 °C 5,6 °C 2,2 °C 82 % 1021,9 hPa 0,0 l/m² 0 min 0 W/m² 9,7 km/h (2 Bft) 97,87 %
30.03.2026 20:44 6,6 °C 5,6 °C 2,2 °C 82 % 1022,0 hPa 0,0 l/m² 0 min 0 W/m² 9,7 km/h (2 Bft) 100,00 %
30.03.2026 20:46 6,5 °C 5,6 °C 2,2 °C 82 % 1022,0 hPa 0,0 l/m² 0 min 0 W/m² 9,7 km/h (2 Bft) 100,00 %
30.03.2026 20:48 6,5 °C 5,0 °C 1,7 °C 82 % 1022,0 hPa 0,0 l/m² 0 min 0 W/m² 19,3 km/h (3 Bft) 100,00 %
30.03.2026 20:50 6,4 °C 5,0 °C 1,7 °C 82 % 1022,0 hPa 0,0 l/m² 0 min 0 W/m² 12,9 km/h (3 Bft) 100,00 %
30.03.2026 20:52 6,4 °C 5,0 °C 1,7 °C 83 % 1022,1 hPa 0,0 l/m² 0 min 0 W/m² 9,7 km/h (2 Bft) 97,83 %
30.03.2026 20:54 6,3 °C 5,0 °C 1,7 °C 83 % 1022,1 hPa 0,0 l/m² 0 min 0 W/m² 12,9 km/h (3 Bft) 97,87 %
30.03.2026 20:56 6,3 °C 5,0 °C 1,7 °C 83 % 1022,1 hPa 0,0 l/m² 0 min 0 W/m² 12,9 km/h (3 Bft) 97,87 %
30.03.2026 20:58 6,2 °C 5,0 °C 1,7 °C 83 % 1022,2 hPa 0,0 l/m² 0 min 0 W/m² 12,9 km/h (3 Bft) 98,00 %
30.03.2026 21:00 6,2 °C 5,0 °C 1,7 °C 83 % 1022,2 hPa 0,0 l/m² 0 min 0 W/m² 9,7 km/h (2 Bft) 100,00 %
30.03.2026 21:02 6,1 °C 5,0 °C 1,7 °C 83 % 1022,3 hPa 0,0 l/m² 0 min 0 W/m² 16,1 km/h (3 Bft) 100,00 %
30.03.2026 21:04 6,1 °C 5,0 °C 1,7 °C 83 % 1022,2 hPa 0,0 l/m² 0 min 0 W/m² 9,7 km/h (2 Bft) 100,00 %
30.03.2026 21:06 6,1 °C 5,0 °C 1,7 °C 83 % 1022,3 hPa 0,0 l/m² 0 min 0 W/m² 9,7 km/h (2 Bft) 100,00 %
30.03.2026 21:08 6,0 °C 5,0 °C 1,7 °C 83 % 1022,4 hPa 0,0 l/m² 0 min 0 W/m² 12,9 km/h (3 Bft) 100,00 %
30.03.2026 21:10 5,9 °C 5,0 °C 1,7 °C 83 % 1022,4 hPa 0,0 l/m² 0 min 0 W/m² 9,7 km/h (2 Bft) 100,00 %
30.03.2026 21:12 5,9 °C 5,0 °C 1,7 °C 83 % 1022,4 hPa 0,0 l/m² 0 min 0 W/m² 6,4 km/h (2 Bft) 96,72 %
30.03.2026 21:14 5,9 °C 5,0 °C 1,7 °C 83 % 1022,5 hPa 0,0 l/m² 0 min 0 W/m² 6,4 km/h (2 Bft) 97,87 %
30.03.2026 21:16 5,9 °C 5,0 °C 1,7 °C 83 % 1022,4 hPa 0,0 l/m² 0 min 0 W/m² 9,7 km/h (2 Bft) 95,74 %
30.03.2026 21:18 5,9 °C 5,0 °C 1,7 °C 83 % 1022,5 hPa 0,0 l/m² 0 min 0 W/m² 6,4 km/h (2 Bft) 97,87 %
30.03.2026 21:20 5,9 °C 5,0 °C 1,7 °C 83 % 1022,5 hPa 0,0 l/m² 0 min 0 W/m² 6,4 km/h (2 Bft) 95,74 %
30.03.2026 21:22 5,8 °C 5,0 °C 1,7 °C 83 % 1022,5 hPa 0,0 l/m² 0 min 0 W/m² 3,2 km/h (1 Bft) 97,87 %
30.03.2026 21:24 5,8 °C 5,0 °C 1,7 °C 83 % 1022,6 hPa 0,0 l/m² 0 min 0 W/m² 9,7 km/h (2 Bft) 97,37 %
30.03.2026 21:26 5,8 °C 5,0 °C 1,7 °C 84 % 1022,6 hPa 0,0 l/m² 0 min 0 W/m² 6,4 km/h (2 Bft) 97,87 %
30.03.2026 21:28 5,8 °C 5,0 °C 1,7 °C 84 % 1022,6 hPa 0,0 l/m² 0 min 0 W/m² 9,7 km/h (2 Bft) 97,83 %
30.03.2026 21:30 5,7 °C 4,4 °C 1,1 °C 84 % 1022,6 hPa 0,0 l/m² 0 min 0 W/m² 6,4 km/h (2 Bft) 97,87 %
30.03.2026 21:32 5,7 °C 4,4 °C 1,1 °C 84 % 1022,7 hPa 0,0 l/m² 0 min 0 W/m² 3,2 km/h (1 Bft) 97,87 %
30.03.2026 21:34 5,7 °C 4,4 °C 1,1 °C 84 % 1022,7 hPa 0,0 l/m² 0 min 0 W/m² 9,7 km/h (2 Bft) 97,87 %
30.03.2026 21:36 5,7 °C 4,4 °C 1,1 °C 84 % 1022,6 hPa 0,0 l/m² 0 min 0 W/m² 6,4 km/h (2 Bft) 95,74 %
30.03.2026 21:38 5,7 °C 4,4 °C 1,1 °C 84 % 1022,7 hPa 0,0 l/m² 0 min 0 W/m² 3,2 km/h (1 Bft) 97,87 %
30.03.2026 21:40 5,6 °C 4,4 °C 1,1 °C 84 % 1022,7 hPa 0,0 l/m² 0 min 0 W/m² 3,2 km/h (1 Bft) 98,00 %
30.03.2026 21:42 5,6 °C 4,4 °C 1,1 °C 84 % 1022,8 hPa 0,0 l/m² 0 min 0 W/m² 6,4 km/h (2 Bft) 95,74 %
30.03.2026 21:44 5,5 °C 4,4 °C 1,1 °C 84 % 1022,8 hPa 0,0 l/m² 0 min 0 W/m² 6,4 km/h (2 Bft) 95,65 %
30.03.2026 21:46 5,5 °C 4,4 °C 1,1 °C 84 % 1022,8 hPa 0,0 l/m² 0 min 0 W/m² 6,4 km/h (2 Bft) 94,00 %
30.03.2026 21:48 5,4 °C 4,4 °C 1,1 °C 84 % 1022,9 hPa 0,0 l/m² 0 min 0 W/m² 6,4 km/h (2 Bft) 95,74 %
30.03.2026 21:50 5,4 °C 4,4 °C 1,1 °C 84 % 1022,9 hPa 0,0 l/m² 0 min 0 W/m² 6,4 km/h (2 Bft) 92,00 %
30.03.2026 21:52 5,4 °C 4,4 °C 1,1 °C 85 % 1023,0 hPa 0,0 l/m² 0 min 0 W/m² 9,7 km/h (2 Bft) 95,74 %
30.03.2026 21:54 5,3 °C 4,4 °C 1,1 °C 85 % 1023,1 hPa 0,0 l/m² 0 min 0 W/m² 6,4 km/h (2 Bft) 91,49 %
30.03.2026 21:56 5,3 °C 4,4 °C 1,1 °C 85 % 1023,0 hPa 0,0 l/m² 0 min 0 W/m² 0,0 km/h (0 Bft) 93,62 %
30.03.2026 21:58 5,3 °C 4,4 °C 1,1 °C 85 % 1023,1 hPa 0,0 l/m² 0 min 0 W/m² 0,0 km/h (0 Bft) 97,14 %
30.03.2026 22:00 5,3 °C 4,4 °C 1,1 °C 85 % 1023,2 hPa 0,0 l/m² 0 min 0 W/m² 0,0 km/h (0 Bft) 94,44 %
30.03.2026 22:02 5,3 °C 4,4 °C 1,1 °C 85 % 1023,2 hPa 0,0 l/m² 0 min 0 W/m² 0,0 km/h (0 Bft) 100,00 %
30.03.2026 22:07 5,3 °C 4,4 °C 1,1 °C 86 % 1023,2 hPa 0,0 l/m² 0 min 0 W/m² 6,4 km/h (2 Bft) 95,45 %
30.03.2026 22:08 5,3 °C 4,4 °C 1,1 °C 86 % 1023,2 hPa 0,0 l/m² 0 min 0 W/m² 0,0 km/h (0 Bft) 91,67 %
30.03.2026 22:10 5,3 °C 4,4 °C 1,1 °C 86 % 1023,3 hPa 0,0 l/m² 0 min 0 W/m² 3,2 km/h (1 Bft) 95,74 %
30.03.2026 22:12 5,3 °C 4,4 °C 1,1 °C 86 % 1023,3 hPa 0,0 l/m² 0 min 0 W/m² 3,2 km/h (1 Bft) 94,44 %
30.03.2026 22:14 5,3 °C 4,4 °C 1,1 °C 86 % 1023,2 hPa 0,0 l/m² 0 min 0 W/m² 3,2 km/h (1 Bft) 95,74 %
30.03.2026 22:16 5,3 °C 4,4 °C 1,1 °C 87 % 1023,3 hPa 0,0 l/m² 0 min 0 W/m² 3,2 km/h (1 Bft) 95,65 %
30.03.2026 22:18 5,3 °C 4,4 °C 1,1 °C 87 % 1023,3 hPa 0,0 l/m² 0 min 0 W/m² 6,4 km/h (2 Bft) 97,87 %
30.03.2026 22:20 5,3 °C 4,4 °C 1,1 °C 87 % 1023,3 hPa 0,0 l/m² 0 min 0 W/m² 0,0 km/h (0 Bft) 95,74 %
30.03.2026 22:22 5,3 °C 4,4 °C 1,1 °C 87 % 1023,3 hPa 0,0 l/m² 0 min 0 W/m² 0,0 km/h (0 Bft) 97,87 %
30.03.2026 22:24 5,3 °C 4,4 °C 1,1 °C 87 % 1023,5 hPa 0,0 l/m² 0 min 0 W/m² 3,2 km/h (1 Bft) 97,87 %
30.03.2026 22:26 5,3 °C 4,4 °C 1,1 °C 87 % 1023,5 hPa 0,2 l/m² 0 min 0 W/m² 6,4 km/h (2 Bft) 93,62 %
30.03.2026 22:28 5,3 °C 4,4 °C 1,1 °C 87 % 1023,6 hPa 0,0 l/m² 0 min 0 W/m² 3,2 km/h (1 Bft) 100,00 %
30.03.2026 22:30 5,3 °C 4,4 °C 1,1 °C 87 % 1023,5 hPa 0,0 l/m² 0 min 0 W/m² 6,4 km/h (2 Bft) 95,74 %
30.03.2026 22:32 5,3 °C 4,4 °C 1,1 °C 88 % 1023,6 hPa 0,0 l/m² 0 min 0 W/m² 9,7 km/h (2 Bft) 97,87 %
30.03.2026 22:34 5,4 °C 4,4 °C 1,1 °C 88 % 1023,6 hPa 0,0 l/m² 0 min 0 W/m² 6,4 km/h (2 Bft) 97,87 %
30.03.2026 22:36 5,4 °C 5,0 °C 1,1 °C 88 % 1023,7 hPa 0,0 l/m² 0 min 0 W/m² 12,9 km/h (3 Bft) 93,48 %
30.03.2026 22:38 5,4 °C 5,0 °C 1,1 °C 88 % 1023,9 hPa 0,0 l/m² 0 min 0 W/m² 22,5 km/h (4 Bft) 97,87 %
30.03.2026 22:40 5,4 °C 5,0 °C 1,1 °C 89 % 1024,0 hPa 0,0 l/m² 0 min 0 W/m² 19,3 km/h (3 Bft) 97,87 %
30.03.2026 22:42 5,4 °C 5,0 °C 1,1 °C 89 % 1023,8 hPa 0,0 l/m² 0 min 0 W/m² 19,3 km/h (3 Bft) 95,74 %
30.03.2026 22:44 5,4 °C 4,4 °C 1,1 °C 89 % 1023,7 hPa 0,0 l/m² 0 min 0 W/m² 9,7 km/h (2 Bft) 97,87 %
30.03.2026 22:46 5,4 °C 4,4 °C 1,1 °C 89 % 1023,7 hPa 0,0 l/m² 0 min 0 W/m² 16,1 km/h (3 Bft) 100,00 %
30.03.2026 22:48 5,3 °C 4,4 °C 1,1 °C 89 % 1023,8 hPa 0,0 l/m² 0 min 0 W/m² 12,9 km/h (3 Bft) 98,15 %
30.03.2026 22:50 5,3 °C 4,4 °C 1,1 °C 89 % 1023,8 hPa 0,0 l/m² 0 min 0 W/m² 12,9 km/h (3 Bft) 100,00 %
30.03.2026 22:52 5,3 °C 4,4 °C 1,1 °C 89 % 1023,8 hPa 0,0 l/m² 0 min 0 W/m² 12,9 km/h (3 Bft) 100,00 %
30.03.2026 22:54 5,3 °C 4,4 °C 1,1 °C 89 % 1023,8 hPa 0,0 l/m² 0 min 0 W/m² 6,4 km/h (2 Bft) 97,37 %
30.03.2026 22:56 5,2 °C 4,4 °C 0,6 °C 89 % 1023,9 hPa 0,0 l/m² 0 min 0 W/m² 9,7 km/h (2 Bft) 100,00 %
30.03.2026 22:58 5,2 °C 4,4 °C 0,6 °C 89 % 1023,9 hPa 0,0 l/m² 0 min 0 W/m² 12,9 km/h (3 Bft) 100,00 %
30.03.2026 23:00 5,2 °C 3,9 °C 0,6 °C 89 % 1024,0 hPa 0,0 l/m² 0 min 0 W/m² 12,9 km/h (3 Bft) 100,00 %
30.03.2026 23:02 5,1 °C 3,9 °C 0,6 °C 89 % 1023,9 hPa 0,0 l/m² 0 min 0 W/m² 9,7 km/h (2 Bft) 100,00 %
30.03.2026 23:04 5,1 °C 3,9 °C 0,6 °C 89 % 1023,9 hPa 0,0 l/m² 0 min 0 W/m² 12,9 km/h (3 Bft) 100,00 %
30.03.2026 23:06 5,1 °C 3,9 °C 0,6 °C 89 % 1023,9 hPa 0,0 l/m² 0 min 0 W/m² 6,4 km/h (2 Bft) 100,00 %
30.03.2026 23:08 5,0 °C 3,9 °C 0,6 °C 89 % 1023,9 hPa 0,0 l/m² 0 min 0 W/m² 12,9 km/h (3 Bft) 100,00 %
30.03.2026 23:10 5,0 °C 3,9 °C 0,6 °C 89 % 1024,0 hPa 0,0 l/m² 0 min 0 W/m² 6,4 km/h (2 Bft) 100,00 %
30.03.2026 23:12 4,9 °C 3,9 °C 0,6 °C 89 % 1024,0 hPa 0,0 l/m² 0 min 0 W/m² 9,7 km/h (2 Bft) 100,00 %
30.03.2026 23:14 4,9 °C 3,9 °C 0,6 °C 89 % 1024,0 hPa 0,0 l/m² 0 min 0 W/m² 3,2 km/h (1 Bft) 100,00 %
30.03.2026 23:16 4,9 °C 3,9 °C 0,6 °C 89 % 1024,1 hPa 0,0 l/m² 0 min 0 W/m² 3,2 km/h (1 Bft) 100,00 %
30.03.2026 23:18 4,9 °C 3,9 °C 0,6 °C 89 % 1024,1 hPa 0,0 l/m² 0 min 0 W/m² 6,4 km/h (2 Bft) 100,00 %
30.03.2026 23:20 4,8 °C 3,9 °C 0,6 °C 89 % 1024,2 hPa 0,0 l/m² 0 min 0 W/m² 0,0 km/h (0 Bft) 95,24 %
30.03.2026 23:22 4,8 °C 3,3 °C 0,6 °C 89 % 1024,1 hPa 0,0 l/m² 0 min 0 W/m² 0,0 km/h (0 Bft) 100,00 %
30.03.2026 23:24 4,8 °C 3,3 °C 0,6 °C 89 % 1024,2 hPa 0,0 l/m² 0 min 0 W/m² 3,2 km/h (1 Bft) 100,00 %
30.03.2026 23:26 4,8 °C 3,3 °C 0,6 °C 89 % 1024,2 hPa 0,0 l/m² 0 min 0 W/m² 0,0 km/h (0 Bft) 97,83 %
30.03.2026 23:28 4,7 °C 3,3 °C 0,6 °C 89 % 1024,2 hPa 0,0 l/m² 0 min 0 W/m² 0,0 km/h (0 Bft) 98,00 %
30.03.2026 23:30 4,7 °C 3,3 °C 0,6 °C 89 % 1024,3 hPa 0,0 l/m² 0 min 0 W/m² 3,2 km/h (1 Bft) 98,00 %
30.03.2026 23:32 4,7 °C 3,3 °C 0,6 °C 89 % 1024,3 hPa 0,0 l/m² 0 min 0 W/m² 0,0 km/h (0 Bft) 97,62 %
30.03.2026 23:34 4,6 °C 3,3 °C 0,6 °C 90 % 1024,3 hPa 0,0 l/m² 0 min 0 W/m² 3,2 km/h (1 Bft) 95,74 %
30.03.2026 23:36 4,6 °C 3,3 °C 0,0 °C 90 % 1024,4 hPa 0,0 l/m² 0 min 0 W/m² 0,0 km/h (0 Bft) 98,00 %
30.03.2026 23:38 4,6 °C 3,3 °C 0,0 °C 90 % 1024,4 hPa 0,0 l/m² 0 min 0 W/m² 0,0 km/h (0 Bft) 97,87 %
30.03.2026 23:40 4,6 °C 3,3 °C 0,0 °C 90 % 1024,4 hPa 0,0 l/m² 0 min 0 W/m² 0,0 km/h (0 Bft) 94,29 %
30.03.2026 23:42 4,5 °C 3,3 °C 0,0 °C 90 % 1024,5 hPa 0,0 l/m² 0 min 0 W/m² 0,0 km/h (0 Bft) 96,00 %
30.03.2026 23:44 4,4 °C 3,3 °C 0,0 °C 90 % 1024,4 hPa 0,0 l/m² 0 min 0 W/m² 0,0 km/h (0 Bft) 95,74 %
30.03.2026 23:46 4,4 °C 3,3 °C 0,0 °C 90 % 1024,4 hPa 0,0 l/m² 0 min 0 W/m² 3,2 km/h (1 Bft) 95,65 %
30.03.2026 23:48 4,4 °C 3,3 °C 0,0 °C 90 % 1024,5 hPa 0,0 l/m² 0 min 0 W/m² 0,0 km/h (0 Bft) 96,00 %
30.03.2026 23:50 4,3 °C 2,8 °C 0,0 °C 90 % 1024,5 hPa 0,0 l/m² 0 min 0 W/m² 3,2 km/h (1 Bft) 95,74 %
30.03.2026 23:52 4,3 °C 2,8 °C 0,0 °C 90 % 1024,5 hPa 0,0 l/m² 0 min 0 W/m² 3,2 km/h (1 Bft) 93,62 %
30.03.2026 23:54 4,3 °C 2,8 °C 0,0 °C 90 % 1024,5 hPa 0,0 l/m² 0 min 0 W/m² 0,0 km/h (0 Bft) 95,74 %
30.03.2026 23:56 4,2 °C 2,8 °C 0,0 °C 90 % 1024,5 hPa 0,0 l/m² 0 min 0 W/m² 0,0 km/h (0 Bft) 95,74 %
30.03.2026 23:58 4,2 °C 2,8 °C 0,0 °C 90 % 1024,5 hPa 0,0 l/m² 0 min 0 W/m² 0,0 km/h (0 Bft) 95,74 %
_ Min-Zeit 23:56 23:50 07:08 13:46 03:54 - - - 21:56 11:20
Minimum _ 4,2 °C 2,8 °C -0,6 °C 58 % 1013,6 hPa - - - 0,0 km/h (0 Bft) 37,50 %
_ Max-Zeit 13:26 13:24 12:32 02:58 23:42 00:10 18:07 13:56 01:00 00:44
Maximum _ 12,6 °C 21,7 °C 13,3 °C 96 % 1024,5 hPa 0,2 l/m² 3 min 940 W/m² 57,9 km/h
S-SW (7 Bft)
100,00 %
Durchschnitt _ 7,2 °C 7,9 °C 3,2 °C 84 % 1018,1 hPa #7,9 l/m² #6:33 h 307 W/m² 20,0 km/h (4 Bft) 97,28 %
© 2026 W. Hausmann